Time,TemperatureF,DewpointF,PressureIn,WindDirection,WindDirectionDegrees,WindSpeedMPH,WindSpeedGustMPH,Humidity,HourlyPrecipIn,Conditions,Clouds,dailyrainin,SoftwareType,DateUTC
2013-04-30 00:00:00,55.6,29.8,30.20,SW,218,0.0,0.0,37,0.00,,CLR,0.00,VWS V14.01,2013-04-30 04:00:00,
2013-04-30 00:01:00,55.6,29.8,30.20,SW,218,0.0,0.0,37,0.00,,CLR,0.00,VWS V14.01,2013-04-30 04:01:00,
2013-04-30 00:06:00,55.6,29.1,30.20,WSW,258,0.0,0.0,36,0.00,,CLR,0.00,VWS V14.01,2013-04-30 04:06:00,
2013-04-30 00:11:00,55.5,29.0,30.20,South,176,0.0,0.0,36,0.00,,CLR,0.00,VWS V14.01,2013-04-30 04:11:00,
2013-04-30 00:15:00,55.5,29.0,30.20,SSE,148,0.0,2.0,36,0.00,,CLR,0.00,VWS V14.01,2013-04-30 04:15:00,
2013-04-30 00:16:00,55.6,29.1,30.20,SSE,148,0.0,2.0,36,0.00,,CLR,0.00,VWS V14.01,2013-04-30 04:16:00,
2013-04-30 00:21:00,55.5,29.0,30.20,SW,229,0.0,1.0,36,0.00,,CLR,0.00,VWS V14.01,2013-04-30 04:21:00,
2013-04-30 00:26:00,55.4,29.6,30.20,SW,218,0.0,1.0,37,0.00,,CLR,0.00,VWS V14.01,2013-04-30 04:26:00,
2013-04-30 00:30:00,55.3,28.8,30.19,SSW,193,0.0,1.0,36,0.00,,CLR,0.00,VWS V14.01,2013-04-30 04:30:00,
2013-04-30 00:31:00,55.3,28.8,30.19,SSW,193,1.0,1.0,36,0.00,,CLR,0.00,VWS V14.01,2013-04-30 04:31:00,
2013-04-30 00:36:00,55.3,28.8,30.19,SE,141,0.0,2.0,36,0.00,,CLR,0.00,VWS V14.01,2013-04-30 04:36:00,
2013-04-30 00:41:00,55.2,28.7,30.19,SE,141,0.0,0.0,36,0.00,,CLR,0.00,VWS V14.01,2013-04-30 04:41:00,
2013-04-30 00:45:00,55.1,28.6,30.19,SSW,212,0.0,1.0,36,0.00,,CLR,0.00,VWS V14.01,2013-04-30 04:45:00,
2013-04-30 00:46:00,55.0,28.6,30.19,SSW,212,0.0,1.0,36,0.00,,CLR,0.00,VWS V14.01,2013-04-30 04:46:00,
2013-04-30 00:51:00,55.0,27.2,30.19,SW,217,0.0,1.0,34,0.00,,CLR,0.00,VWS V14.01,2013-04-30 04:51:00,
2013-04-30 00:56:00,54.9,27.8,30.19,SW,214,0.0,1.0,35,0.00,,CLR,0.00,VWS V14.01,2013-04-30 04:56:00,
2013-04-30 01:00:00,54.9,27.1,30.19,SW,214,0.0,1.0,34,0.00,,CLR,0.00,VWS V14.01,2013-04-30 05:00:00,
2013-04-30 01:01:00,54.9,27.1,30.20,SW,215,0.0,1.0,34,0.00,,CLR,0.00,VWS V14.01,2013-04-30 05:01:00,
2013-04-30 01:06:00,54.9,27.1,30.20,SW,215,0.0,0.0,34,0.00,,CLR,0.00,VWS V14.01,2013-04-30 05:06:00,
2013-04-30 01:11:00,54.7,26.9,30.20,SW,214,0.0,0.0,34,0.00,,CLR,0.00,VWS V14.01,2013-04-30 05:11:00,
2013-04-30 01:15:00,54.7,27.6,30.20,South,187,0.0,1.0,35,0.00,,CLR,0.00,VWS V14.01,2013-04-30 05:15:00,
2013-04-30 01:16:00,54.6,27.5,30.20,South,187,0.0,1.0,35,0.00,,CLR,0.00,VWS V14.01,2013-04-30 05:16:00,
2013-04-30 01:21:00,54.5,28.1,30.20,South,187,0.0,0.0,36,0.00,,CLR,0.00,VWS V14.01,2013-04-30 05:21:00,
2013-04-30 01:26:00,54.4,27.3,30.20,South,190,0.0,0.0,35,0.00,,CLR,0.00,VWS V14.01,2013-04-30 05:26:00,
2013-04-30 01:30:00,54.3,26.5,30.20,SSE,151,0.0,2.0,34,0.00,,CLR,0.00,VWS V14.01,2013-04-30 05:30:00,
2013-04-30 01:31:00,54.3,26.5,30.20,SSE,150,0.0,2.0,34,0.00,,CLR,0.00,VWS V14.01,2013-04-30 05:31:00,
2013-04-30 01:36:00,54.2,27.2,30.20,SSE,150,0.0,0.0,35,0.00,,CLR,0.00,VWS V14.01,2013-04-30 05:36:00,
2013-04-30 01:41:00,54.1,26.4,30.20,SSE,150,0.0,0.0,34,0.00,,CLR,0.00,VWS V14.01,2013-04-30 05:41:00,
2013-04-30 01:45:00,54.0,26.3,30.19,SSE,150,0.0,0.0,34,0.00,,CLR,0.00,VWS V14.01,2013-04-30 05:45:00,
2013-04-30 01:46:00,54.0,26.3,30.19,SSE,150,0.0,0.0,34,0.00,,CLR,0.00,VWS V14.01,2013-04-30 05:46:00,
2013-04-30 01:51:00,53.9,26.2,30.20,SSE,150,0.0,0.0,34,0.00,,CLR,0.00,VWS V14.01,2013-04-30 05:51:00,
2013-04-30 01:56:00,53.7,26.7,30.19,SSE,149,0.0,0.0,35,0.00,,CLR,0.00,VWS V14.01,2013-04-30 05:56:00,
2013-04-30 02:00:00,53.5,27.2,30.19,SSE,148,0.0,0.0,36,0.00,,CLR,0.00,VWS V14.01,2013-04-30 06:00:00,
2013-04-30 02:01:00,53.5,26.5,30.19,SSE,149,0.0,0.0,35,0.00,,CLR,0.00,VWS V14.01,2013-04-30 06:01:00,
2013-04-30 02:06:00,53.3,25.7,30.19,SSE,149,0.0,0.0,34,0.00,,CLR,0.00,VWS V14.01,2013-04-30 06:06:00,
2013-04-30 02:11:00,53.2,25.6,30.19,SSE,149,0.0,0.0,34,0.00,,CLR,0.00,VWS V14.01,2013-04-30 06:11:00,
2013-04-30 02:15:00,53.1,25.5,30.19,SSE,149,0.0,0.0,34,0.00,,CLR,0.00,VWS V14.01,2013-04-30 06:15:00,
2013-04-30 02:16:00,53.1,25.5,30.19,SSE,149,0.0,0.0,34,0.00,,CLR,0.00,VWS V14.01,2013-04-30 06:16:00,
2013-04-30 02:21:00,53.0,26.1,30.19,SSE,149,0.0,0.0,35,0.00,,CLR,0.00,VWS V14.01,2013-04-30 06:21:00,
2013-04-30 02:26:00,52.8,25.2,30.19,SSE,149,0.0,0.0,34,0.00,,CLR,0.00,VWS V14.01,2013-04-30 06:26:00,
2013-04-30 02:30:00,52.6,27.1,30.19,SSE,149,0.0,0.0,37,0.00,,CLR,0.00,VWS V14.01,2013-04-30 06:30:00,
2013-04-30 02:31:00,52.6,26.4,30.20,SSE,149,0.0,0.0,36,0.00,,CLR,0.00,VWS V14.01,2013-04-30 06:31:00,
2013-04-30 02:36:00,52.5,27.0,30.20,SSE,149,0.0,0.0,37,0.00,,CLR,0.00,VWS V14.01,2013-04-30 06:36:00,
2013-04-30 02:41:00,52.3,26.2,30.19,SSE,149,0.0,0.0,36,0.00,,CLR,0.00,VWS V14.01,2013-04-30 06:41:00,
2013-04-30 02:45:00,52.2,25.4,30.20,SSE,149,0.0,0.0,35,0.00,,CLR,0.00,VWS V14.01,2013-04-30 06:45:00,
2013-04-30 02:46:00,52.2,26.1,30.20,SSE,149,0.0,0.0,36,0.00,,CLR,0.00,VWS V14.01,2013-04-30 06:46:00,
2013-04-30 02:51:00,52.0,25.9,30.20,SSE,149,0.0,0.0,36,0.00,,CLR,0.00,VWS V14.01,2013-04-30 06:51:00,
2013-04-30 02:56:00,51.9,26.5,30.20,SSE,149,0.0,0.0,37,0.00,,CLR,0.00,VWS V14.01,2013-04-30 06:56:00,
2013-04-30 03:00:00,51.8,26.4,30.20,SSE,149,0.0,0.0,37,0.00,,CLR,0.00,VWS V14.01,2013-04-30 07:00:00,
2013-04-30 03:01:00,51.8,27.0,30.20,SSE,149,0.0,0.0,38,0.00,,CLR,0.00,VWS V14.01,2013-04-30 07:01:00,
2013-04-30 03:06:00,51.7,28.2,30.19,SSE,149,0.0,0.0,40,0.00,,CLR,0.00,VWS V14.01,2013-04-30 07:06:00,
2013-04-30 03:11:00,51.5,27.4,30.20,SSE,149,0.0,0.0,39,0.00,,CLR,0.00,VWS V14.01,2013-04-30 07:11:00,
2013-04-30 03:15:00,51.5,27.4,30.19,SSE,149,0.0,0.0,39,0.00,,CLR,0.00,VWS V14.01,2013-04-30 07:15:00,
2013-04-30 03:16:00,51.5,27.4,30.19,SSE,149,0.0,0.0,39,0.00,,CLR,0.00,VWS V14.01,2013-04-30 07:16:00,
2013-04-30 03:21:00,51.6,27.5,30.19,SSE,150,0.0,0.0,39,0.00,,CLR,0.00,VWS V14.01,2013-04-30 07:21:00,
2013-04-30 03:26:00,51.4,27.9,30.19,SSE,150,0.0,0.0,40,0.00,,CLR,0.00,VWS V14.01,2013-04-30 07:26:00,
2013-04-30 03:30:00,51.2,28.3,30.19,SSE,150,0.0,0.0,41,0.00,,CLR,0.00,VWS V14.01,2013-04-30 07:30:00,
2013-04-30 03:31:00,51.2,28.3,30.19,SSE,152,0.0,0.0,41,0.00,,CLR,0.00,VWS V14.01,2013-04-30 07:31:00,
2013-04-30 03:36:00,51.0,28.1,30.19,SSE,153,0.0,0.0,41,0.00,,CLR,0.00,VWS V14.01,2013-04-30 07:36:00,
2013-04-30 03:41:00,50.7,27.9,30.20,SSE,152,0.0,0.0,41,0.00,,CLR,0.00,VWS V14.01,2013-04-30 07:41:00,
2013-04-30 03:45:00,50.2,28.0,30.20,SSE,153,0.0,0.0,42,0.00,,CLR,0.00,VWS V14.01,2013-04-30 07:45:00,
2013-04-30 03:46:00,50.2,28.0,30.20,SSE,152,0.0,0.0,42,0.00,,CLR,0.00,VWS V14.01,2013-04-30 07:46:00,
2013-04-30 03:51:00,49.8,29.9,30.20,SSE,150,0.0,0.0,46,0.00,,CLR,0.00,VWS V14.01,2013-04-30 07:51:00,
2013-04-30 03:56:00,49.4,30.5,30.20,SSE,152,0.0,0.0,48,0.00,,CLR,0.00,VWS V14.01,2013-04-30 07:56:00,
2013-04-30 04:00:00,49.2,29.3,30.20,SSE,153,0.0,0.0,46,0.00,,CLR,0.00,VWS V14.01,2013-04-30 08:00:00,
2013-04-30 04:01:00,49.2,29.3,30.20,SSE,152,0.0,0.0,46,0.00,,CLR,0.00,VWS V14.01,2013-04-30 08:01:00,
2013-04-30 04:06:00,49.2,28.8,30.20,SSE,152,0.0,0.0,45,0.00,,CLR,0.00,VWS V14.01,2013-04-30 08:06:00,
2013-04-30 04:11:00,49.0,28.6,30.20,SSE,153,0.0,0.0,45,0.00,,CLR,0.00,VWS V14.01,2013-04-30 08:11:00,
2013-04-30 04:15:00,49.0,28.6,30.20,SSE,152,0.0,0.0,45,0.00,,CLR,0.00,VWS V14.01,2013-04-30 08:15:00,
2013-04-30 04:16:00,49.0,28.6,30.20,SSE,152,0.0,0.0,45,0.00,,CLR,0.00,VWS V14.01,2013-04-30 08:16:00,
2013-04-30 04:21:00,48.9,29.0,30.20,SSE,152,0.0,0.0,46,0.00,,CLR,0.00,VWS V14.01,2013-04-30 08:21:00,
2013-04-30 04:26:00,48.7,28.9,30.21,SSE,153,0.0,0.0,46,0.00,,CLR,0.00,VWS V14.01,2013-04-30 08:26:00,
2013-04-30 04:30:00,48.5,28.7,30.21,SSE,152,0.0,0.0,46,0.00,,CLR,0.00,VWS V14.01,2013-04-30 08:30:00,
2013-04-30 04:31:00,48.6,28.8,30.21,SSE,152,0.0,0.0,46,0.00,,CLR,0.00,VWS V14.01,2013-04-30 08:31:00,
2013-04-30 04:36:00,48.4,29.1,30.21,SSE,152,0.0,0.0,47,0.00,,CLR,0.00,VWS V14.01,2013-04-30 08:36:00,
2013-04-30 04:41:00,48.2,29.5,30.21,SSE,152,0.0,0.0,48,0.00,,CLR,0.00,VWS V14.01,2013-04-30 08:41:00,
2013-04-30 04:45:00,48.1,29.4,30.21,SSE,152,0.0,0.0,48,0.00,,CLR,0.00,VWS V14.01,2013-04-30 08:45:00,
2013-04-30 04:46:00,48.1,29.9,30.21,SSE,152,0.0,0.0,49,0.00,,CLR,0.00,VWS V14.01,2013-04-30 08:46:00,
2013-04-30 04:51:00,48.0,29.8,30.21,SSE,152,0.0,0.0,49,0.00,,CLR,0.00,VWS V14.01,2013-04-30 08:51:00,
2013-04-30 04:56:00,48.0,29.3,30.21,SSE,152,0.0,0.0,48,0.00,,CLR,0.00,VWS V14.01,2013-04-30 08:56:00,
2013-04-30 05:00:00,48.1,29.4,30.22,SSE,152,0.0,0.0,48,0.00,,CLR,0.00,VWS V14.01,2013-04-30 09:00:00,
2013-04-30 05:01:00,48.1,29.4,30.22,SSE,153,0.0,0.0,48,0.00,,CLR,0.00,VWS V14.01,2013-04-30 09:01:00,
2013-04-30 05:06:00,48.1,29.9,30.22,SSE,152,0.0,0.0,49,0.00,,CLR,0.00,VWS V14.01,2013-04-30 09:06:00,
2013-04-30 05:11:00,47.9,30.2,30.22,SSE,152,0.0,0.0,50,0.00,,CLR,0.00,VWS V14.01,2013-04-30 09:11:00,
2013-04-30 05:15:00,47.7,30.0,30.22,SSE,152,0.0,0.0,50,0.00,,CLR,0.00,VWS V14.01,2013-04-30 09:15:00,
2013-04-30 05:16:00,47.6,29.9,30.22,SSE,152,0.0,0.0,50,0.00,,CLR,0.00,VWS V14.01,2013-04-30 09:16:00,
2013-04-30 05:21:00,47.6,30.4,30.22,SSE,152,0.0,0.0,51,0.00,,CLR,0.00,VWS V14.01,2013-04-30 09:21:00,
2013-04-30 05:26:00,47.4,30.2,30.22,SSE,152,0.0,0.0,51,0.00,,CLR,0.00,VWS V14.01,2013-04-30 09:26:00,
2013-04-30 05:30:00,47.3,30.6,30.23,SSE,152,0.0,0.0,52,0.00,,CLR,0.00,VWS V14.01,2013-04-30 09:30:00,
2013-04-30 05:31:00,47.3,30.6,30.22,SSE,152,0.0,0.0,52,0.00,,CLR,0.00,VWS V14.01,2013-04-30 09:31:00,
2013-04-30 05:36:00,47.2,31.4,30.22,SSE,152,0.0,0.0,54,0.00,,CLR,0.00,VWS V14.01,2013-04-30 09:36:00,
2013-04-30 05:41:00,47.1,31.3,30.22,SSE,152,0.0,0.0,54,0.00,,CLR,0.00,VWS V14.01,2013-04-30 09:41:00,
2013-04-30 05:45:00,46.9,30.7,30.22,SSE,152,0.0,0.0,53,0.00,,CLR,0.00,VWS V14.01,2013-04-30 09:45:00,
2013-04-30 05:46:00,46.8,30.6,30.22,SSE,152,0.0,0.0,53,0.00,,CLR,0.00,VWS V14.01,2013-04-30 09:46:00,
2013-04-30 05:51:00,46.6,30.9,30.22,SSE,152,0.0,0.0,54,0.00,,CLR,0.00,VWS V14.01,2013-04-30 09:51:00,
2013-04-30 05:56:00,46.7,31.4,30.23,SSE,152,0.0,0.0,55,0.00,,CLR,0.00,VWS V14.01,2013-04-30 09:56:00,
2013-04-30 06:00:00,46.6,31.8,30.23,SSE,152,0.0,0.0,56,0.00,,CLR,0.00,VWS V14.01,2013-04-30 10:00:00,
2013-04-30 06:01:00,46.6,31.8,30.23,SSE,152,0.0,0.0,56,0.00,,CLR,0.00,VWS V14.01,2013-04-30 10:01:00,
2013-04-30 06:06:00,46.3,31.5,30.23,SSE,152,0.0,0.0,56,0.00,,CLR,0.00,VWS V14.01,2013-04-30 10:06:00,
2013-04-30 06:11:00,46.2,32.2,30.23,SSE,152,0.0,0.0,58,0.00,,CLR,0.00,VWS V14.01,2013-04-30 10:11:00,
2013-04-30 06:15:00,46.1,32.6,30.23,SSE,150,0.0,0.0,59,0.00,,CLR,0.00,VWS V14.01,2013-04-30 10:15:00,
2013-04-30 06:16:00,46.1,32.6,30.23,SSE,152,0.0,0.0,59,0.00,,CLR,0.00,VWS V14.01,2013-04-30 10:16:00,
2013-04-30 06:21:00,46.1,33.4,30.23,SSE,152,0.0,0.0,61,0.00,,CLR,0.00,VWS V14.01,2013-04-30 10:21:00,
2013-04-30 06:26:00,46.3,32.8,30.23,SSE,150,0.0,0.0,59,0.00,,CLR,0.00,VWS V14.01,2013-04-30 10:26:00,
2013-04-30 06:30:00,46.9,33.3,30.24,SSE,151,0.0,0.0,59,0.00,,CLR,0.00,VWS V14.01,2013-04-30 10:30:00,
2013-04-30 06:31:00,46.9,33.3,30.24,SSE,151,0.0,0.0,59,0.00,,CLR,0.00,VWS V14.01,2013-04-30 10:31:00,
2013-04-30 06:36:00,47.3,33.3,30.24,SSE,150,0.0,1.0,58,0.00,,CLR,0.00,VWS V14.01,2013-04-30 10:36:00,
2013-04-30 06:41:00,47.5,33.9,30.24,SSE,150,0.0,0.0,59,0.00,,CLR,0.00,VWS V14.01,2013-04-30 10:41:00,
2013-04-30 06:45:00,47.5,34.3,30.24,SSE,150,0.0,0.0,60,0.00,,CLR,0.00,VWS V14.01,2013-04-30 10:45:00,
2013-04-30 06:46:00,47.5,34.3,30.24,SSE,151,0.0,0.0,60,0.00,,CLR,0.00,VWS V14.01,2013-04-30 10:46:00,
2013-04-30 06:51:00,47.5,34.3,30.24,SSE,150,0.0,0.0,60,0.00,,CLR,0.00,VWS V14.01,2013-04-30 10:51:00,
2013-04-30 06:56:00,47.6,34.0,30.24,SSE,150,0.0,0.0,59,0.00,,CLR,0.00,VWS V14.01,2013-04-30 10:56:00,
2013-04-30 07:00:00,48.1,34.0,30.25,SSE,150,0.0,0.0,58,0.00,,CLR,0.00,VWS V14.01,2013-04-30 11:00:00,
2013-04-30 07:01:00,48.2,34.1,30.25,SSE,150,0.0,0.0,58,0.00,,CLR,0.00,VWS V14.01,2013-04-30 11:01:00,
2013-04-30 07:06:00,48.5,35.3,30.25,SSE,150,0.0,0.0,60,0.00,,CLR,0.00,VWS V14.01,2013-04-30 11:06:00,
2013-04-30 07:11:00,49.0,35.3,30.25,SSE,150,0.0,0.0,59,0.00,,CLR,0.00,VWS V14.01,2013-04-30 11:11:00,
2013-04-30 07:15:00,49.9,36.2,30.25,SSE,150,0.0,0.0,59,0.00,,CLR,0.00,VWS V14.01,2013-04-30 11:15:00,
2013-04-30 07:16:00,50.0,36.2,30.25,SSE,150,0.0,0.0,59,0.00,,CLR,0.00,VWS V14.01,2013-04-30 11:16:00,
2013-04-30 07:21:00,51.2,37.0,30.25,SSE,150,0.0,0.0,58,0.00,,CLR,0.00,VWS V14.01,2013-04-30 11:21:00,
2013-04-30 07:26:00,52.2,35.6,30.25,SE,127,0.0,2.0,53,0.00,,CLR,0.00,VWS V14.01,2013-04-30 11:26:00,
2013-04-30 07:30:00,53.3,36.1,30.25,South,186,0.0,1.0,52,0.00,,CLR,0.00,VWS V14.01,2013-04-30 11:30:00,
2013-04-30 07:31:00,53.3,36.1,30.25,South,186,0.0,1.0,52,0.00,,CLR,0.00,VWS V14.01,2013-04-30 11:31:00,
2013-04-30 07:36:00,54.2,35.0,30.25,WSW,250,0.0,1.0,48,0.00,,CLR,0.00,VWS V14.01,2013-04-30 11:36:00,
2013-04-30 07:41:00,54.9,35.6,30.25,SSW,212,0.0,2.0,48,0.00,,CLR,0.00,VWS V14.01,2013-04-30 11:41:00,
2013-04-30 07:45:00,55.5,35.6,30.25,SW,219,0.0,1.0,47,0.00,,CLR,0.00,VWS V14.01,2013-04-30 11:45:00,
2013-04-30 07:46:00,55.6,35.7,30.25,SSE,150,1.0,1.0,47,0.00,,CLR,0.00,VWS V14.01,2013-04-30 11:46:00,
2013-04-30 07:51:00,56.3,35.8,30.26,SW,226,0.0,1.0,46,0.00,,CLR,0.00,VWS V14.01,2013-04-30 11:51:00,
2013-04-30 07:56:00,57.0,35.3,30.25,WSW,255,1.0,1.0,44,0.00,,CLR,0.00,VWS V14.01,2013-04-30 11:56:00,
2013-04-30 08:00:00,57.6,35.9,30.26,SW,232,0.0,1.0,44,0.00,,CLR,0.00,VWS V14.01,2013-04-30 12:00:00,
2013-04-30 08:01:00,57.6,34.7,30.26,SW,232,0.0,1.0,42,0.00,,CLR,0.00,VWS V14.01,2013-04-30 12:01:00,
2013-04-30 08:02:00,59.7,32.7,30.26,SE,141,1.0,4.0,36,0.00,,CLR,0.00,VWS V14.01,2013-04-30 12:02:00,
2013-04-30 08:03:00,59.7,32.7,30.26,SE,141,1.0,2.0,36,0.00,,CLR,0.00,VWS V14.01,2013-04-30 12:03:00,
2013-04-30 08:04:00,59.7,32.7,30.26,SE,141,1.0,1.0,36,0.00,,CLR,0.00,VWS V14.01,2013-04-30 12:04:00,
2013-04-30 08:05:00,59.7,32.7,30.26,SE,141,1.0,1.0,36,0.00,,CLR,0.00,VWS V14.01,2013-04-30 12:05:00,
2013-04-30 08:06:00,57.9,34.4,30.26,South,172,2.0,3.0,41,0.00,,CLR,0.00,VWS V14.01,2013-04-30 12:06:00,
2013-04-30 08:07:00,59.7,32.7,30.26,SE,141,1.0,1.0,36,0.00,,CLR,0.00,VWS V14.01,2013-04-30 12:07:00,
2013-04-30 08:08:00,59.7,32.7,30.26,SE,141,1.0,1.0,36,0.00,,CLR,0.00,VWS V14.01,2013-04-30 12:08:00,
2013-04-30 08:09:00,59.7,32.7,30.26,SE,141,1.0,1.0,36,0.00,,CLR,0.00,VWS V14.01,2013-04-30 12:09:00,
2013-04-30 08:10:00,59.7,32.7,30.26,SE,141,1.0,1.0,36,0.00,,CLR,0.00,VWS V14.01,2013-04-30 12:10:00,
2013-04-30 08:11:00,58.0,35.1,30.26,SW,215,1.0,2.0,42,0.00,,CLR,0.00,VWS V14.01,2013-04-30 12:11:00,
2013-04-30 08:12:00,59.7,32.7,30.26,SE,141,1.0,1.0,36,0.00,,CLR,0.00,VWS V14.01,2013-04-30 12:12:00,
2013-04-30 08:13:00,59.7,32.7,30.26,SE,141,1.0,1.0,36,0.00,,CLR,0.00,VWS V14.01,2013-04-30 12:13:00,
2013-04-30 08:14:00,59.7,32.7,30.26,SE,141,1.0,1.0,36,0.00,,CLR,0.00,VWS V14.01,2013-04-30 12:14:00,
2013-04-30 08:15:00,59.7,32.7,30.26,SE,141,1.0,1.0,36,0.00,,CLR,0.00,VWS V14.01,2013-04-30 12:15:00,
2013-04-30 08:16:00,58.2,34.6,30.26,SE,143,0.0,3.0,41,0.00,,CLR,0.00,VWS V14.01,2013-04-30 12:16:00,
2013-04-30 08:17:00,59.7,32.7,30.26,SE,141,1.0,1.0,36,0.00,,CLR,0.00,VWS V14.01,2013-04-30 12:17:00,
2013-04-30 08:18:00,60.5,33.4,30.26,East,100,2.0,2.0,36,0.00,,CLR,0.00,VWS V14.01,2013-04-30 12:18:00,
2013-04-30 08:19:00,60.4,34.7,30.26,ESE,107,2.0,3.0,38,0.00,,CLR,0.00,VWS V14.01,2013-04-30 12:19:00,
2013-04-30 08:20:00,60.4,33.3,30.26,SE,129,1.0,3.0,36,0.00,,CLR,0.00,VWS V14.01,2013-04-30 12:20:00,
2013-04-30 08:21:00,58.6,34.4,30.26,SE,126,2.0,3.0,40,0.00,,CLR,0.00,VWS V14.01,2013-04-30 12:21:00,
2013-04-30 08:22:00,60.3,33.3,30.26,East,97,0.0,3.0,36,0.00,,CLR,0.00,VWS V14.01,2013-04-30 12:22:00,
2013-04-30 08:23:00,60.4,34.7,30.26,SSE,158,0.0,3.0,38,0.00,,CLR,0.00,VWS V14.01,2013-04-30 12:23:00,
2013-04-30 08:24:00,60.4,34.0,30.26,NW,324,0.0,2.0,37,0.00,,CLR,0.00,VWS V14.01,2013-04-30 12:24:00,
2013-04-30 08:25:00,60.5,32.0,30.26,WNW,283,1.0,2.0,34,0.00,,CLR,0.00,VWS V14.01,2013-04-30 12:25:00,
2013-04-30 08:26:00,58.4,34.2,30.26,East,87,0.0,4.0,40,0.00,,CLR,0.00,VWS V14.01,2013-04-30 12:26:00,
2013-04-30 08:27:00,60.6,32.8,30.26,SE,141,2.0,2.0,35,0.00,,CLR,0.00,VWS V14.01,2013-04-30 12:27:00,
2013-04-30 08:28:00,60.8,33.7,30.26,SE,138,0.0,2.0,36,0.00,,CLR,0.00,VWS V14.01,2013-04-30 12:28:00,
2013-04-30 08:29:00,61.1,32.5,30.26,SE,128,1.0,2.0,34,0.00,,CLR,0.00,VWS V14.01,2013-04-30 12:29:00,
2013-04-30 08:30:00,61.2,31.9,30.26,East,96,2.0,2.0,33,0.00,,CLR,0.00,VWS V14.01,2013-04-30 12:30:00,
2013-04-30 08:31:00,58.8,33.9,30.26,SW,228,0.0,2.0,39,0.00,,CLR,0.00,VWS V14.01,2013-04-30 12:31:00,
2013-04-30 08:32:00,61.4,33.5,30.26,NE,53,0.0,2.0,35,0.00,,CLR,0.00,VWS V14.01,2013-04-30 12:32:00,
2013-04-30 08:33:00,61.5,33.6,30.26,NE,56,0.0,2.0,35,0.00,,CLR,0.00,VWS V14.01,2013-04-30 12:33:00,
2013-04-30 08:34:00,61.6,33.0,30.26,East,94,3.0,4.0,34,0.00,,CLR,0.00,VWS V14.01,2013-04-30 12:34:00,
2013-04-30 08:35:00,61.5,32.2,30.26,East,91,3.0,4.0,33,0.00,,CLR,0.00,VWS V14.01,2013-04-30 12:35:00,
2013-04-30 08:36:00,59.4,33.8,30.26,SW,219,0.0,1.0,38,0.00,,CLR,0.00,VWS V14.01,2013-04-30 12:36:00,
2013-04-30 08:37:00,61.5,31.4,30.26,SE,145,2.0,4.0,32,0.00,,CLR,0.00,VWS V14.01,2013-04-30 12:37:00,
2013-04-30 08:38:00,61.5,29.8,30.26,WSW,240,2.0,4.0,30,0.00,,CLR,0.00,VWS V14.01,2013-04-30 12:38:00,
2013-04-30 08:39:00,61.5,29.0,30.26,SSE,160,1.0,3.0,29,0.00,,CLR,0.00,VWS V14.01,2013-04-30 12:39:00,
2013-04-30 08:40:00,61.5,29.0,30.26,SE,124,1.0,3.0,29,0.00,,CLR,0.00,VWS V14.01,2013-04-30 12:40:00,
2013-04-30 08:41:00,61.6,29.9,30.26,WSW,252,2.0,2.0,30,0.00,,CLR,0.00,VWS V14.01,2013-04-30 12:41:00,
2013-04-30 08:42:00,61.5,29.0,30.26,WSW,238,1.0,2.0,29,0.00,,CLR,0.00,VWS V14.01,2013-04-30 12:42:00,
2013-04-30 08:43:00,61.5,29.0,30.26,WNW,288,1.0,2.0,29,0.00,,CLR,0.00,VWS V14.01,2013-04-30 12:43:00,
2013-04-30 08:44:00,61.5,29.0,30.26,WNW,288,0.0,2.0,29,0.00,,CLR,0.00,VWS V14.01,2013-04-30 12:44:00,
2013-04-30 08:45:00,61.6,29.1,30.26,ESE,110,2.0,4.0,29,0.00,,CLR,0.00,VWS V14.01,2013-04-30 12:45:00,
2013-04-30 08:46:00,-999.0,-99.9,0.00,North,-999,-999.0,-999.0,-999,0.00,,,0.00,weatherlink.com 1.10,2013-04-30 12:46:00,
2013-04-30 08:47:00,61.8,28.4,30.26,SSW,207,1.0,5.0,28,0.00,,CLR,0.00,VWS V14.01,2013-04-30 12:47:00,
2013-04-30 08:48:00,61.9,26.7,30.26,SSW,206,3.0,5.0,26,0.00,,CLR,0.00,VWS V14.01,2013-04-30 12:48:00,
2013-04-30 08:49:00,62.0,26.8,30.26,South,187,3.0,5.0,26,0.00,,CLR,0.00,VWS V14.01,2013-04-30 12:49:00,
2013-04-30 08:50:00,62.0,26.8,30.26,SW,225,2.0,3.0,26,0.00,,CLR,0.00,VWS V14.01,2013-04-30 12:50:00,
2013-04-30 08:51:00,61.9,26.7,30.26,SSE,155,1.0,3.0,26,0.00,,CLR,0.00,VWS V14.01,2013-04-30 12:51:00,
2013-04-30 08:52:00,62.0,25.8,30.26,SE,146,1.0,3.0,25,0.00,,CLR,0.00,VWS V14.01,2013-04-30 12:52:00,
2013-04-30 08:53:00,62.1,26.8,30.26,South,186,3.0,3.0,26,0.00,,CLR,0.00,VWS V14.01,2013-04-30 12:53:00,
2013-04-30 08:54:00,62.2,25.0,30.26,South,170,2.0,4.0,24,0.00,,CLR,0.00,VWS V14.01,2013-04-30 12:54:00,
2013-04-30 08:55:00,62.3,24.1,30.26,South,187,1.0,4.0,23,0.00,,CLR,0.00,VWS V14.01,2013-04-30 12:55:00,
2013-04-30 08:56:00,62.4,25.2,30.26,SE,127,2.0,4.0,24,0.00,,CLR,0.00,VWS V14.01,2013-04-30 12:56:00,
2013-04-30 08:57:00,62.4,25.2,30.26,SSE,159,1.0,4.0,24,0.00,,CLR,0.00,VWS V14.01,2013-04-30 12:57:00,
2013-04-30 08:58:00,62.3,25.1,30.26,WNW,286,1.0,4.0,24,0.00,,CLR,0.00,VWS V14.01,2013-04-30 12:58:00,
2013-04-30 08:59:00,60.5,33.0,30.26,East,97,2.0,4.0,36,0.00,,,0.00,weatherlink.com 1.10,2013-04-30 12:59:00,
2013-04-30 09:00:00,62.5,25.2,30.26,SSW,194,3.0,3.0,24,0.00,,CLR,0.00,VWS V14.01,2013-04-30 13:00:00,
2013-04-30 09:01:00,62.6,24.3,30.26,SSE,165,3.0,4.0,23,0.00,,CLR,0.00,VWS V14.01,2013-04-30 13:01:00,
2013-04-30 09:02:00,62.6,25.3,30.27,WSW,243,2.0,4.0,24,0.00,,CLR,0.00,VWS V14.01,2013-04-30 13:02:00,
2013-04-30 09:03:00,62.4,23.1,30.26,WSW,253,4.0,4.0,22,0.00,,CLR,0.00,VWS V14.01,2013-04-30 13:03:00,
2013-04-30 09:04:00,62.1,22.8,30.26,South,169,2.0,4.0,22,0.00,,CLR,0.00,VWS V14.01,2013-04-30 13:04:00,
2013-04-30 09:05:00,62.0,24.8,30.26,ESE,113,6.0,6.0,24,0.00,,CLR,0.00,VWS V14.01,2013-04-30 13:05:00,
2013-04-30 09:06:00,62.0,24.8,30.26,ESE,123,4.0,6.0,24,0.00,,CLR,0.00,VWS V14.01,2013-04-30 13:06:00,
2013-04-30 09:07:00,62.0,22.8,30.26,SE,129,1.0,6.0,22,0.00,,CLR,0.00,VWS V14.01,2013-04-30 13:07:00,
2013-04-30 09:08:00,62.1,22.8,30.26,ENE,68,1.0,6.0,22,0.00,,CLR,0.00,VWS V14.01,2013-04-30 13:08:00,
2013-04-30 09:09:00,62.3,23.0,30.26,East,82,1.0,5.0,22,0.00,,CLR,0.00,VWS V14.01,2013-04-30 13:09:00,
2013-04-30 09:10:00,62.4,22.0,30.26,SSW,207,2.0,5.0,21,0.00,,CLR,0.00,VWS V14.01,2013-04-30 13:10:00,
2013-04-30 09:11:00,62.4,25.2,30.26,SE,143,1.0,5.0,24,0.00,,CLR,0.00,VWS V14.01,2013-04-30 13:11:00,
2013-04-30 09:12:00,62.4,25.2,30.26,SW,219,0.0,5.0,24,0.00,,CLR,0.00,VWS V14.01,2013-04-30 13:12:00,
2013-04-30 09:13:00,62.5,27.2,30.26,WSW,249,1.0,5.0,26,0.00,,CLR,0.00,VWS V14.01,2013-04-30 13:13:00,
2013-04-30 09:14:00,62.7,25.4,30.26,SSW,198,1.0,2.0,24,0.00,,CLR,0.00,VWS V14.01,2013-04-30 13:14:00,
2013-04-30 09:15:00,61.6,32.0,30.26,East,92,2.0,3.0,33,0.00,,,0.00,weatherlink.com 1.10,2013-04-30 13:15:00,
2013-04-30 09:16:00,62.8,22.3,30.26,ESE,105,2.0,4.0,21,0.00,,CLR,0.00,VWS V14.01,2013-04-30 13:16:00,
2013-04-30 09:17:00,62.8,22.3,30.26,East,89,2.0,4.0,21,0.00,,CLR,0.00,VWS V14.01,2013-04-30 13:17:00,
2013-04-30 09:18:00,62.8,21.2,30.26,South,191,2.0,4.0,20,0.00,,CLR,0.00,VWS V14.01,2013-04-30 13:18:00,
2013-04-30 09:19:00,62.8,22.3,30.26,SE,141,3.0,4.0,21,0.00,,CLR,0.00,VWS V14.01,2013-04-30 13:19:00,
2013-04-30 09:20:00,62.9,23.5,30.26,SSW,205,1.0,4.0,22,0.00,,CLR,0.00,VWS V14.01,2013-04-30 13:20:00,
2013-04-30 09:21:00,62.9,24.6,30.26,SW,220,2.0,3.0,23,0.00,,CLR,0.00,VWS V14.01,2013-04-30 13:21:00,
2013-04-30 09:22:00,62.9,23.5,30.26,South,176,2.0,3.0,22,0.00,,CLR,0.00,VWS V14.01,2013-04-30 13:22:00,
2013-04-30 09:23:00,63.0,24.6,30.26,SE,141,3.0,4.0,23,0.00,,CLR,0.00,VWS V14.01,2013-04-30 13:23:00,
2013-04-30 09:24:00,63.1,24.7,30.26,SW,229,2.0,4.0,23,0.00,,CLR,0.00,VWS V14.01,2013-04-30 13:24:00,
2013-04-30 09:25:00,63.1,24.7,30.26,SW,214,2.0,4.0,23,0.00,,CLR,0.00,VWS V14.01,2013-04-30 13:25:00,
2013-04-30 09:26:00,63.1,23.7,30.26,SW,225,3.0,4.0,22,0.00,,CLR,0.00,VWS V14.01,2013-04-30 13:26:00,
2013-04-30 09:27:00,62.9,23.5,30.26,WSW,244,1.0,4.0,22,0.00,,CLR,0.00,VWS V14.01,2013-04-30 13:27:00,
2013-04-30 09:28:00,62.7,24.4,30.26,SE,130,1.0,3.0,23,0.00,,CLR,0.00,VWS V14.01,2013-04-30 13:28:00,
2013-04-30 09:29:00,62.7,25.4,30.26,SSE,165,3.0,4.0,24,0.00,,CLR,0.00,VWS V14.01,2013-04-30 13:29:00,
2013-04-30 09:30:00,62.7,25.4,30.26,ESE,108,2.0,4.0,24,0.00,,CLR,0.00,VWS V14.01,2013-04-30 13:30:00,
2013-04-30 09:31:00,61.9,26.0,30.26,SW,225,1.0,5.0,26,0.00,,,0.00,weatherlink.com 1.10,2013-04-30 13:31:00,
2013-04-30 09:32:00,62.7,26.4,30.26,ESE,116,0.0,3.0,25,0.00,,CLR,0.00,VWS V14.01,2013-04-30 13:32:00,
2013-04-30 09:33:00,62.7,25.4,30.26,North,1,2.0,3.0,24,0.00,,CLR,0.00,VWS V14.01,2013-04-30 13:33:00,
2013-04-30 09:34:00,62.6,25.3,30.26,NE,41,1.0,2.0,24,0.00,,CLR,0.00,VWS V14.01,2013-04-30 13:34:00,
2013-04-30 09:35:00,62.5,25.2,30.26,SE,135,3.0,4.0,24,0.00,,CLR,0.00,VWS V14.01,2013-04-30 13:35:00,
2013-04-30 09:36:00,62.5,25.2,30.26,SE,135,2.0,4.0,24,0.00,,CLR,0.00,VWS V14.01,2013-04-30 13:36:00,
2013-04-30 09:37:00,62.5,25.2,30.26,SSE,150,2.0,4.0,24,0.00,,CLR,0.00,VWS V14.01,2013-04-30 13:37:00,
2013-04-30 09:38:00,62.7,26.4,30.26,SSW,194,4.0,4.0,25,0.00,,CLR,0.00,VWS V14.01,2013-04-30 13:38:00,
2013-04-30 09:39:00,62.7,25.4,30.26,ESE,120,2.0,5.0,24,0.00,,CLR,0.00,VWS V14.01,2013-04-30 13:39:00,
2013-04-30 09:40:00,62.8,26.5,30.26,South,172,2.0,5.0,25,0.00,,CLR,0.00,VWS V14.01,2013-04-30 13:40:00,
2013-04-30 09:41:00,63.0,26.6,30.26,South,180,3.0,5.0,25,0.00,,CLR,0.00,VWS V14.01,2013-04-30 13:41:00,
2013-04-30 09:42:00,63.2,27.8,30.26,SW,215,3.0,4.0,26,0.00,,CLR,0.00,VWS V14.01,2013-04-30 13:42:00,
2013-04-30 09:43:00,63.3,27.9,30.26,East,98,1.0,4.0,26,0.00,,CLR,0.00,VWS V14.01,2013-04-30 13:43:00,
2013-04-30 09:44:00,63.5,29.0,30.26,South,191,4.0,6.0,27,0.00,,CLR,0.00,VWS V14.01,2013-04-30 13:44:00,
2013-04-30 09:45:00,63.7,27.2,30.26,ESE,111,6.0,6.0,25,0.00,,CLR,0.00,VWS V14.01,2013-04-30 13:45:00,
2013-04-30 09:46:00,63.7,26.3,30.26,East,87,3.0,6.0,24,0.00,,CLR,0.00,VWS V14.01,2013-04-30 13:46:00,
2013-04-30 09:47:00,63.5,26.1,30.26,ESE,102,2.0,6.0,24,0.00,,CLR,0.00,VWS V14.01,2013-04-30 13:47:00,
2013-04-30 09:48:00,62.1,23.0,30.26,South,170,2.0,7.0,22,0.00,,,0.00,weatherlink.com 1.10,2013-04-30 13:48:00,
2013-04-30 09:49:00,63.4,26.0,30.26,WSW,252,1.0,6.0,24,0.00,,CLR,0.00,VWS V14.01,2013-04-30 13:49:00,
2013-04-30 09:50:00,63.5,27.1,30.26,WNW,294,0.0,5.0,25,0.00,,CLR,0.00,VWS V14.01,2013-04-30 13:50:00,
2013-04-30 09:51:00,63.5,28.0,30.26,East,80,2.0,2.0,26,0.00,,CLR,0.00,VWS V14.01,2013-04-30 13:51:00,
2013-04-30 09:52:00,63.7,26.3,30.26,SSW,194,4.0,4.0,24,0.00,,CLR,0.00,VWS V14.01,2013-04-30 13:52:00,
2013-04-30 09:53:00,63.9,26.4,30.26,SSE,165,4.0,6.0,24,0.00,,CLR,0.00,VWS V14.01,2013-04-30 13:53:00,
2013-04-30 09:54:00,64.0,26.5,30.26,SE,134,2.0,6.0,24,0.00,,CLR,0.00,VWS V14.01,2013-04-30 13:54:00,
2013-04-30 09:55:00,64.2,25.7,30.26,SE,124,0.0,6.0,23,0.00,,CLR,0.00,VWS V14.01,2013-04-30 13:55:00,
2013-04-30 09:56:00,64.3,27.8,30.26,ESE,117,5.0,6.0,25,0.00,,CLR,0.00,VWS V14.01,2013-04-30 13:56:00,
2013-04-30 09:57:00,64.5,23.7,30.26,SE,146,5.0,8.0,21,0.00,,CLR,0.00,VWS V14.01,2013-04-30 13:57:00,
2013-04-30 09:58:00,64.5,24.8,30.26,SSW,195,2.0,8.0,22,0.00,,CLR,0.00,VWS V14.01,2013-04-30 13:58:00,
2013-04-30 09:59:00,64.5,25.9,30.26,SSE,163,1.0,8.0,23,0.00,,CLR,0.00,VWS V14.01,2013-04-30 13:59:00,
2013-04-30 10:00:00,64.6,27.0,30.26,SSE,150,7.0,8.0,24,0.00,,CLR,0.00,VWS V14.01,2013-04-30 14:00:00,
2013-04-30 10:01:00,64.6,23.8,30.26,SSE,153,3.0,7.0,21,0.00,,CLR,0.00,VWS V14.01,2013-04-30 14:01:00,
2013-04-30 10:02:00,64.7,25.0,30.26,South,174,1.0,7.0,22,0.00,,CLR,0.00,VWS V14.01,2013-04-30 14:02:00,
2013-04-30 10:03:00,64.7,23.9,30.26,ESE,107,1.0,7.0,21,0.00,,CLR,0.00,VWS V14.01,2013-04-30 14:03:00,
2013-04-30 10:04:00,63.1,25.0,30.26,South,171,4.0,4.0,23,0.00,,,0.00,weatherlink.com 1.10,2013-04-30 14:04:00,
2013-04-30 10:05:00,64.7,23.9,30.26,SSE,160,4.0,9.0,21,0.00,,CLR,0.00,VWS V14.01,2013-04-30 14:05:00,
2013-04-30 10:06:00,64.6,26.0,30.26,ENE,72,4.0,9.0,23,0.00,,CLR,0.00,VWS V14.01,2013-04-30 14:06:00,
2013-04-30 10:07:00,64.6,26.0,30.26,SE,130,3.0,9.0,23,0.00,,CLR,0.00,VWS V14.01,2013-04-30 14:07:00,
2013-04-30 10:08:00,64.6,23.8,30.26,South,181,3.0,5.0,21,0.00,,CLR,0.00,VWS V14.01,2013-04-30 14:08:00,
2013-04-30 10:09:00,64.5,23.7,30.26,SSW,200,2.0,5.0,21,0.00,,CLR,0.00,VWS V14.01,2013-04-30 14:09:00,
2013-04-30 10:10:00,64.5,23.7,30.26,NNE,27,1.0,4.0,21,0.00,,CLR,0.00,VWS V14.01,2013-04-30 14:10:00,
2013-04-30 10:11:00,64.4,24.8,30.26,SE,142,1.0,4.0,22,0.00,,CLR,0.00,VWS V14.01,2013-04-30 14:11:00,
2013-04-30 10:12:00,64.5,24.8,30.26,SE,134,1.0,2.0,22,0.00,,CLR,0.00,VWS V14.01,2013-04-30 14:12:00,
2013-04-30 10:13:00,64.6,24.9,30.26,ENE,78,4.0,5.0,22,0.00,,CLR,0.00,VWS V14.01,2013-04-30 14:13:00,
2013-04-30 10:14:00,64.7,25.0,30.26,SW,231,2.0,5.0,22,0.00,,CLR,0.00,VWS V14.01,2013-04-30 14:14:00,
2013-04-30 10:15:00,64.7,26.1,30.26,South,181,7.0,7.0,23,0.00,,CLR,0.00,VWS V14.01,2013-04-30 14:15:00,
2013-04-30 10:16:00,64.7,23.9,30.26,SSE,163,2.0,7.0,21,0.00,,CLR,0.00,VWS V14.01,2013-04-30 14:16:00,
2013-04-30 10:17:00,64.7,23.9,30.26,SSE,163,4.0,7.0,21,0.00,,CLR,0.00,VWS V14.01,2013-04-30 14:17:00,
2013-04-30 10:18:00,64.6,23.8,30.26,SW,215,2.0,7.0,21,0.00,,CLR,0.00,VWS V14.01,2013-04-30 14:18:00,
2013-04-30 10:19:00,64.6,24.9,30.26,ESE,120,2.0,5.0,22,0.00,,CLR,0.00,VWS V14.01,2013-04-30 14:19:00,
2013-04-30 10:20:00,64.6,24.9,30.26,SE,135,0.0,5.0,22,0.00,,CLR,0.00,VWS V14.01,2013-04-30 14:20:00,
2013-04-30 10:21:00,62.9,25.0,30.26,SE,133,1.0,6.0,24,0.00,,,0.00,weatherlink.com 1.10,2013-04-30 14:21:00,
2013-04-30 10:22:00,64.7,25.0,30.26,NW,320,0.0,3.0,22,0.00,,CLR,0.00,VWS V14.01,2013-04-30 14:22:00,
2013-04-30 10:23:00,64.7,25.0,30.26,East,101,5.0,6.0,22,0.00,,CLR,0.00,VWS V14.01,2013-04-30 14:23:00,
2013-04-30 10:24:00,64.6,24.9,30.26,ESE,102,3.0,6.0,22,0.00,,CLR,0.00,VWS V14.01,2013-04-30 14:24:00,
2013-04-30 10:25:00,64.5,24.8,30.26,SE,136,3.0,6.0,22,0.00,,CLR,0.00,VWS V14.01,2013-04-30 14:25:00,
2013-04-30 10:26:00,64.5,24.8,30.26,ESE,108,1.0,6.0,22,0.00,,CLR,0.00,VWS V14.01,2013-04-30 14:26:00,
2013-04-30 10:27:00,64.5,24.8,30.26,ESE,118,2.0,4.0,22,0.00,,CLR,0.00,VWS V14.01,2013-04-30 14:27:00,
2013-04-30 10:28:00,64.6,26.0,30.26,ESE,117,8.0,8.0,23,0.00,,CLR,0.00,VWS V14.01,2013-04-30 14:28:00,
2013-04-30 10:29:00,64.6,23.8,30.26,SSW,205,4.0,8.0,21,0.00,,CLR,0.00,VWS V14.01,2013-04-30 14:29:00,
2013-04-30 10:30:00,64.6,24.9,30.26,ESE,104,5.0,8.0,22,0.00,,CLR,0.00,VWS V14.01,2013-04-30 14:30:00,
2013-04-30 10:31:00,64.6,24.9,30.26,East,99,4.0,8.0,22,0.00,,CLR,0.00,VWS V14.01,2013-04-30 14:31:00,
2013-04-30 10:32:00,64.7,27.1,30.26,ESE,120,4.0,8.0,24,0.00,,CLR,0.00,VWS V14.01,2013-04-30 14:32:00,
2013-04-30 10:33:00,64.7,26.1,30.26,East,95,3.0,8.0,23,0.00,,CLR,0.00,VWS V14.01,2013-04-30 14:33:00,
2013-04-30 10:34:00,64.8,29.1,30.26,SE,143,1.0,7.0,26,0.00,,CLR,0.00,VWS V14.01,2013-04-30 14:34:00,
2013-04-30 10:35:00,65.1,28.4,30.25,East,94,2.0,6.0,25,0.00,,CLR,0.00,VWS V14.01,2013-04-30 14:35:00,
2013-04-30 10:36:00,65.2,26.5,30.25,East,79,6.0,6.0,23,0.00,,CLR,0.00,VWS V14.01,2013-04-30 14:36:00,
2013-04-30 10:37:00,64.5,27.0,30.26,SSE,148,7.0,8.0,24,0.00,,,0.00,weatherlink.com 1.10,2013-04-30 14:37:00,
2013-04-30 10:38:00,65.2,25.4,30.25,East,101,3.0,6.0,22,0.00,,CLR,0.00,VWS V14.01,2013-04-30 14:38:00,
2013-04-30 10:39:00,65.1,25.3,30.25,East,96,1.0,6.0,22,0.00,,CLR,0.00,VWS V14.01,2013-04-30 14:39:00,
2013-04-30 10:40:00,65.1,26.4,30.25,ESE,107,3.0,6.0,23,0.00,,CLR,0.00,VWS V14.01,2013-04-30 14:40:00,
2013-04-30 10:41:00,65.0,26.3,30.25,SSE,148,1.0,4.0,23,0.00,,CLR,0.00,VWS V14.01,2013-04-30 14:41:00,
2013-04-30 10:42:00,65.0,26.3,30.25,SSE,158,8.0,8.0,23,0.00,,CLR,0.00,VWS V14.01,2013-04-30 14:42:00,
2013-04-30 10:43:00,65.1,25.3,30.25,SSE,159,5.0,8.0,22,0.00,,CLR,0.00,VWS V14.01,2013-04-30 14:43:00,
2013-04-30 10:44:00,65.2,26.5,30.25,SW,222,0.0,8.0,23,0.00,,CLR,0.00,VWS V14.01,2013-04-30 14:44:00,
2013-04-30 10:45:00,65.4,28.7,30.25,SE,130,1.0,8.0,25,0.00,,CLR,0.00,VWS V14.01,2013-04-30 14:45:00,
2013-04-30 10:46:00,65.5,28.8,30.25,NE,46,1.0,8.0,25,0.00,,CLR,0.00,VWS V14.01,2013-04-30 14:46:00,
2013-04-30 10:47:00,65.9,29.1,30.25,WSW,245,1.0,3.0,25,0.00,,CLR,0.00,VWS V14.01,2013-04-30 14:47:00,
2013-04-30 10:48:00,66.0,27.2,30.25,SSW,212,0.0,2.0,23,0.00,,CLR,0.00,VWS V14.01,2013-04-30 14:48:00,
2013-04-30 10:49:00,66.3,27.4,30.25,East,98,3.0,3.0,23,0.00,,CLR,0.00,VWS V14.01,2013-04-30 14:49:00,
2013-04-30 10:50:00,66.5,27.6,30.25,East,92,2.0,4.0,23,0.00,,CLR,0.00,VWS V14.01,2013-04-30 14:50:00,
2013-04-30 10:51:00,66.7,27.8,30.25,SE,127,5.0,5.0,23,0.00,,CLR,0.00,VWS V14.01,2013-04-30 14:51:00,
2013-04-30 10:52:00,66.8,25.6,30.25,South,177,4.0,5.0,21,0.00,,CLR,0.00,VWS V14.01,2013-04-30 14:52:00,
2013-04-30 10:53:00,66.8,25.6,30.25,SE,131,9.0,9.0,21,0.00,,CLR,0.00,VWS V14.01,2013-04-30 14:53:00,
2013-04-30 10:54:00,64.7,25.0,30.26,SE,141,2.0,5.0,22,0.00,,,0.00,weatherlink.com 1.10,2013-04-30 14:54:00,
2013-04-30 10:55:00,66.3,25.2,30.25,ESE,114,7.0,10.0,21,0.00,,CLR,0.00,VWS V14.01,2013-04-30 14:55:00,
2013-04-30 10:56:00,66.1,23.9,30.25,South,172,2.0,10.0,20,0.00,,CLR,0.00,VWS V14.01,2013-04-30 14:56:00,
2013-04-30 10:57:00,66.0,26.1,30.25,East,89,3.0,9.0,22,0.00,,CLR,0.00,VWS V14.01,2013-04-30 14:57:00,
2013-04-30 10:58:00,66.0,25.0,30.25,East,86,1.0,9.0,21,0.00,,CLR,0.00,VWS V14.01,2013-04-30 14:58:00,
2013-04-30 10:59:00,65.9,26.0,30.25,NE,41,2.0,4.0,22,0.00,,CLR,0.00,VWS V14.01,2013-04-30 14:59:00,
2013-04-30 11:00:00,65.9,27.1,30.25,SE,141,4.0,5.0,23,0.00,,CLR,0.00,VWS V14.01,2013-04-30 15:00:00,
2013-04-30 11:01:00,66.0,26.1,30.25,East,92,4.0,5.0,22,0.00,,CLR,0.00,VWS V14.01,2013-04-30 15:01:00,
2013-04-30 11:02:00,66.1,26.2,30.25,East,91,2.0,6.0,22,0.00,,CLR,0.00,VWS V14.01,2013-04-30 15:02:00,
2013-04-30 11:03:00,66.1,27.2,30.25,East,92,1.0,6.0,23,0.00,,CLR,0.00,VWS V14.01,2013-04-30 15:03:00,
2013-04-30 11:04:00,66.2,27.3,30.25,East,86,2.0,6.0,23,0.00,,CLR,0.00,VWS V14.01,2013-04-30 15:04:00,
2013-04-30 11:05:00,66.3,26.4,30.25,NE,50,2.0,3.0,22,0.00,,CLR,0.00,VWS V14.01,2013-04-30 15:05:00,
2013-04-30 11:06:00,66.3,27.4,30.25,SSE,150,4.0,6.0,23,0.00,,CLR,0.00,VWS V14.01,2013-04-30 15:06:00,
2013-04-30 11:07:00,66.2,26.3,30.25,South,170,3.0,6.0,22,0.00,,CLR,0.00,VWS V14.01,2013-04-30 15:07:00,
2013-04-30 11:08:00,66.3,28.5,30.25,SE,143,8.0,8.0,24,0.00,,CLR,0.00,VWS V14.01,2013-04-30 15:08:00,
2013-04-30 11:09:00,66.3,26.4,30.25,SW,218,4.0,8.0,22,0.00,,CLR,0.00,VWS V14.01,2013-04-30 15:09:00,
2013-04-30 11:10:00,64.6,25.0,30.26,ESE,108,5.0,8.0,22,0.00,,,0.00,weatherlink.com 1.10,2013-04-30 15:10:00,
2013-04-30 11:11:00,66.5,26.5,30.25,South,171,6.0,9.0,22,0.00,,CLR,0.00,VWS V14.01,2013-04-30 15:11:00,
2013-04-30 11:12:00,66.6,25.5,30.25,SSE,156,3.0,9.0,21,0.00,,CLR,0.00,VWS V14.01,2013-04-30 15:12:00,
2013-04-30 11:13:00,66.6,25.5,30.25,South,176,3.0,9.0,21,0.00,,CLR,0.00,VWS V14.01,2013-04-30 15:13:00,
2013-04-30 11:14:00,66.7,24.4,30.25,South,169,0.0,6.0,20,0.00,,CLR,0.00,VWS V14.01,2013-04-30 15:14:00,
2013-04-30 11:15:00,66.7,24.4,30.25,NW,315,2.0,6.0,20,0.00,,CLR,0.00,VWS V14.01,2013-04-30 15:15:00,
2013-04-30 11:16:00,66.5,24.2,30.25,NNW,347,0.0,4.0,20,0.00,,CLR,0.00,VWS V14.01,2013-04-30 15:16:00,
2013-04-30 11:17:00,66.5,26.5,30.25,ENE,72,4.0,5.0,22,0.00,,CLR,0.00,VWS V14.01,2013-04-30 15:17:00,
2013-04-30 11:18:00,66.6,26.6,30.25,SW,235,3.0,5.0,22,0.00,,CLR,0.00,VWS V14.01,2013-04-30 15:18:00,
2013-04-30 11:19:00,66.7,26.7,30.25,SSW,211,3.0,7.0,22,0.00,,CLR,0.00,VWS V14.01,2013-04-30 15:19:00,
2013-04-30 11:20:00,66.8,26.8,30.25,SSW,212,5.0,7.0,22,0.00,,CLR,0.00,VWS V14.01,2013-04-30 15:20:00,
2013-04-30 11:21:00,66.9,26.9,30.25,SSW,207,3.0,7.0,22,0.00,,CLR,0.00,VWS V14.01,2013-04-30 15:21:00,
2013-04-30 11:22:00,66.9,27.9,30.25,SSW,198,2.0,7.0,23,0.00,,CLR,0.00,VWS V14.01,2013-04-30 15:22:00,
2013-04-30 11:23:00,67.1,28.1,30.25,WSW,255,3.0,5.0,23,0.00,,CLR,0.00,VWS V14.01,2013-04-30 15:23:00,
2013-04-30 11:24:00,67.2,28.2,30.24,SSE,160,2.0,4.0,23,0.00,,CLR,0.00,VWS V14.01,2013-04-30 15:24:00,
2013-04-30 11:25:00,67.5,29.5,30.25,ENE,65,3.0,4.0,24,0.00,,CLR,0.00,VWS V14.01,2013-04-30 15:25:00,
2013-04-30 11:26:00,65.5,29.0,30.25,NE,56,1.0,9.0,25,0.00,,,0.00,weatherlink.com 1.10,2013-04-30 15:26:00,
2013-04-30 11:27:00,67.5,27.4,30.25,ENE,75,2.0,6.0,22,0.00,,CLR,0.00,VWS V14.01,2013-04-30 15:27:00,
2013-04-30 11:28:00,67.3,27.2,30.25,NE,48,2.0,6.0,22,0.00,,CLR,0.00,VWS V14.01,2013-04-30 15:28:00,
2013-04-30 11:29:00,67.1,28.1,30.25,NE,50,2.0,6.0,23,0.00,,CLR,0.00,VWS V14.01,2013-04-30 15:29:00,
2013-04-30 11:30:00,66.9,27.9,30.25,ESE,110,3.0,4.0,23,0.00,,CLR,0.00,VWS V14.01,2013-04-30 15:30:00,
2013-04-30 11:31:00,66.7,29.8,30.25,SSW,205,2.0,6.0,25,0.00,,CLR,0.00,VWS V14.01,2013-04-30 15:31:00,
2013-04-30 11:32:00,66.7,27.8,30.24,East,89,7.0,10.0,23,0.00,,CLR,0.00,VWS V14.01,2013-04-30 15:32:00,
2013-04-30 11:33:00,66.7,27.8,30.25,ESE,107,5.0,10.0,23,0.00,,CLR,0.00,VWS V14.01,2013-04-30 15:33:00,
2013-04-30 11:34:00,66.5,26.5,30.25,ESE,120,5.0,10.0,22,0.00,,CLR,0.00,VWS V14.01,2013-04-30 15:34:00,
2013-04-30 11:35:00,66.3,26.4,30.25,ESE,122,3.0,10.0,22,0.00,,CLR,0.00,VWS V14.01,2013-04-30 15:35:00,
2013-04-30 11:36:00,66.3,27.4,30.24,NE,40,3.0,9.0,23,0.00,,CLR,0.00,VWS V14.01,2013-04-30 15:36:00,
2013-04-30 11:37:00,66.4,30.5,30.24,NE,49,2.0,6.0,26,0.00,,CLR,0.00,VWS V14.01,2013-04-30 15:37:00,
2013-04-30 11:38:00,66.4,27.5,30.24,SW,214,1.0,6.0,23,0.00,,CLR,0.00,VWS V14.01,2013-04-30 15:38:00,
2013-04-30 11:39:00,66.4,27.5,30.24,NE,47,2.0,6.0,23,0.00,,CLR,0.00,VWS V14.01,2013-04-30 15:39:00,
2013-04-30 11:40:00,66.4,28.5,30.25,SE,139,7.0,8.0,24,0.00,,CLR,0.00,VWS V14.01,2013-04-30 15:40:00,
2013-04-30 11:41:00,66.4,28.5,30.25,SE,143,5.0,8.0,24,0.00,,CLR,0.00,VWS V14.01,2013-04-30 15:41:00,
2013-04-30 11:42:00,66.5,27.6,30.24,ESE,122,9.0,9.0,23,0.00,,CLR,0.00,VWS V14.01,2013-04-30 15:42:00,
2013-04-30 11:43:00,66.1,26.0,30.25,ESE,111,0.0,8.0,22,0.00,,,0.00,weatherlink.com 1.10,2013-04-30 15:43:00,
2013-04-30 11:44:00,66.7,26.7,30.25,SE,143,8.0,9.0,22,0.00,,CLR,0.00,VWS V14.01,2013-04-30 15:44:00,
2013-04-30 11:45:00,66.6,26.6,30.24,SSE,154,10.0,10.0,22,0.00,,CLR,0.00,VWS V14.01,2013-04-30 15:45:00,
2013-04-30 11:46:00,66.6,27.7,30.24,SE,136,2.0,10.0,23,0.00,,CLR,0.00,VWS V14.01,2013-04-30 15:46:00,
2013-04-30 11:47:00,66.7,28.8,30.24,SE,145,8.0,12.0,24,0.00,,CLR,0.00,VWS V14.01,2013-04-30 15:47:00,
2013-04-30 11:48:00,69.0,27.5,30.23,South,177,6.0,11.0,21,0.00,,CLR,0.00,VWS V14.01,2013-04-30 15:48:00,
2013-04-30 11:49:00,69.0,26.3,30.23,SSE,148,4.0,11.0,20,0.00,,CLR,0.00,VWS V14.01,2013-04-30 15:49:00,
2013-04-30 11:50:00,68.9,27.4,30.23,ESE,118,9.0,11.0,21,0.00,,CLR,0.00,VWS V14.01,2013-04-30 15:50:00,
2013-04-30 11:51:00,68.9,26.2,30.23,SE,143,13.0,13.0,20,0.00,,CLR,0.00,VWS V14.01,2013-04-30 15:51:00,
2013-04-30 11:52:00,68.9,26.2,30.23,East,87,7.0,13.0,20,0.00,,CLR,0.00,VWS V14.01,2013-04-30 15:52:00,
2013-04-30 11:53:00,68.8,27.3,30.23,SSE,150,16.0,16.0,21,0.00,,CLR,0.00,VWS V14.01,2013-04-30 15:53:00,
2013-04-30 11:54:00,68.7,27.2,30.23,SE,132,6.0,16.0,21,0.00,,CLR,0.00,VWS V14.01,2013-04-30 15:54:00,
2013-04-30 11:55:00,68.6,26.0,30.23,SE,135,7.0,16.0,20,0.00,,CLR,0.00,VWS V14.01,2013-04-30 15:55:00,
2013-04-30 11:56:00,68.4,25.8,30.23,East,91,4.0,16.0,20,0.00,,CLR,0.00,VWS V14.01,2013-04-30 15:56:00,
2013-04-30 11:57:00,68.4,25.8,30.24,SE,143,4.0,12.0,20,0.00,,CLR,0.00,VWS V14.01,2013-04-30 15:57:00,
2013-04-30 11:58:00,68.3,25.7,30.23,NNW,330,1.0,9.0,20,0.00,,CLR,0.00,VWS V14.01,2013-04-30 15:58:00,
2013-04-30 11:59:00,66.7,27.0,30.25,SSW,208,2.0,9.0,22,0.00,,,0.00,weatherlink.com 1.10,2013-04-30 15:59:00,
2013-04-30 12:00:00,68.5,28.2,30.23,NNW,348,3.0,6.0,22,0.00,,CLR,0.00,VWS V14.01,2013-04-30 16:00:00,
2013-04-30 12:01:00,68.6,27.1,30.23,ESE,108,6.0,6.0,21,0.00,,CLR,0.00,VWS V14.01,2013-04-30 16:01:00,
2013-04-30 12:02:00,68.6,26.0,30.24,SSE,167,2.0,9.0,20,0.00,,CLR,0.00,VWS V14.01,2013-04-30 16:02:00,
2013-04-30 12:03:00,68.6,27.1,30.24,ESE,113,9.0,9.0,21,0.00,,CLR,0.00,VWS V14.01,2013-04-30 16:03:00,
2013-04-30 12:04:00,68.5,25.9,30.24,SE,131,1.0,9.0,20,0.00,,CLR,0.00,VWS V14.01,2013-04-30 16:04:00,
2013-04-30 12:05:00,68.4,24.6,30.24,SE,137,6.0,9.0,19,0.00,,CLR,0.00,VWS V14.01,2013-04-30 16:05:00,
2013-04-30 12:06:00,68.3,25.7,30.24,SSE,165,5.0,9.0,20,0.00,,CLR,0.00,VWS V14.01,2013-04-30 16:06:00,
2013-04-30 12:07:00,68.2,24.4,30.24,SW,229,3.0,8.0,19,0.00,,CLR,0.00,VWS V14.01,2013-04-30 16:07:00,
2013-04-30 12:08:00,68.2,25.6,30.23,SW,233,2.0,8.0,20,0.00,,CLR,0.00,VWS V14.01,2013-04-30 16:08:00,
2013-04-30 12:09:00,68.2,25.6,30.23,West,266,1.0,8.0,20,0.00,,CLR,0.00,VWS V14.01,2013-04-30 16:09:00,
2013-04-30 12:10:00,68.2,27.9,30.23,East,101,5.0,5.0,22,0.00,,CLR,0.00,VWS V14.01,2013-04-30 16:10:00,
2013-04-30 12:11:00,68.2,25.6,30.23,East,99,7.0,7.0,20,0.00,,CLR,0.00,VWS V14.01,2013-04-30 16:11:00,
2013-04-30 12:12:00,68.2,25.6,30.23,ENE,77,4.0,7.0,20,0.00,,CLR,0.00,VWS V14.01,2013-04-30 16:12:00,
2013-04-30 12:13:00,68.2,25.6,30.23,ESE,113,6.0,7.0,20,0.00,,CLR,0.00,VWS V14.01,2013-04-30 16:13:00,
2013-04-30 12:14:00,68.3,26.9,30.23,SE,133,3.0,8.0,21,0.00,,CLR,0.00,VWS V14.01,2013-04-30 16:14:00,
2013-04-30 12:15:00,68.4,27.0,30.23,ESE,103,4.0,8.0,21,0.00,,CLR,0.00,VWS V14.01,2013-04-30 16:15:00,
2013-04-30 12:16:00,66.3,26.0,30.24,South,187,4.0,10.0,22,0.00,,,0.00,weatherlink.com 1.10,2013-04-30 16:16:00,
2013-04-30 12:17:00,68.4,25.8,30.23,East,84,3.0,10.0,20,0.00,,CLR,0.00,VWS V14.01,2013-04-30 16:17:00,
2013-04-30 12:18:00,68.4,27.0,30.23,ENE,74,2.0,10.0,21,0.00,,CLR,0.00,VWS V14.01,2013-04-30 16:18:00,
2013-04-30 12:19:00,68.3,25.7,30.23,ENE,58,6.0,10.0,20,0.00,,CLR,0.00,VWS V14.01,2013-04-30 16:19:00,
2013-04-30 12:20:00,68.3,25.7,30.23,ENE,75,1.0,10.0,20,0.00,,CLR,0.00,VWS V14.01,2013-04-30 16:20:00,
2013-04-30 12:21:00,68.3,26.9,30.23,East,79,0.0,6.0,21,0.00,,CLR,0.00,VWS V14.01,2013-04-30 16:21:00,
2013-04-30 12:22:00,68.4,28.1,30.23,SW,222,0.0,6.0,22,0.00,,CLR,0.00,VWS V14.01,2013-04-30 16:22:00,
2013-04-30 12:23:00,68.7,28.4,30.23,ESE,118,2.0,3.0,22,0.00,,CLR,0.00,VWS V14.01,2013-04-30 16:23:00,
2013-04-30 12:24:00,69.0,29.7,30.23,ENE,77,1.0,2.0,23,0.00,,CLR,0.00,VWS V14.01,2013-04-30 16:24:00,
2013-04-30 12:25:00,69.3,27.7,30.23,ESE,109,1.0,2.0,21,0.00,,CLR,0.00,VWS V14.01,2013-04-30 16:25:00,
2013-04-30 12:26:00,69.5,29.0,30.23,East,96,2.0,2.0,22,0.00,,CLR,0.00,VWS V14.01,2013-04-30 16:26:00,
2013-04-30 12:27:00,69.7,28.0,30.23,SE,127,2.0,4.0,21,0.00,,CLR,0.00,VWS V14.01,2013-04-30 16:27:00,
2013-04-30 12:28:00,69.8,28.1,30.23,ESE,111,5.0,5.0,21,0.00,,CLR,0.00,VWS V14.01,2013-04-30 16:28:00,
2013-04-30 12:29:00,69.8,27.0,30.23,SSE,163,7.0,7.0,20,0.00,,CLR,0.00,VWS V14.01,2013-04-30 16:29:00,
2013-04-30 12:30:00,69.9,25.8,30.23,SE,125,8.0,8.0,19,0.00,,CLR,0.00,VWS V14.01,2013-04-30 16:30:00,
2013-04-30 12:31:00,69.8,25.7,30.23,East,98,3.0,11.0,19,0.00,,CLR,0.00,VWS V14.01,2013-04-30 16:31:00,
2013-04-30 12:32:00,69.7,26.9,30.23,ESE,114,9.0,12.0,20,0.00,,CLR,0.00,VWS V14.01,2013-04-30 16:32:00,
2013-04-30 12:33:00,69.5,25.5,30.23,SE,134,4.0,12.0,19,0.00,,CLR,0.00,VWS V14.01,2013-04-30 16:33:00,
2013-04-30 12:34:00,69.4,26.6,30.23,ESE,105,5.0,12.0,20,0.00,,CLR,0.00,VWS V14.01,2013-04-30 16:34:00,
2013-04-30 12:35:00,69.3,27.7,30.23,South,177,1.0,12.0,21,0.00,,CLR,0.00,VWS V14.01,2013-04-30 16:35:00,
2013-04-30 12:36:00,69.4,26.6,30.23,East,99,1.0,9.0,20,0.00,,CLR,0.00,VWS V14.01,2013-04-30 16:36:00,
2013-04-30 12:37:00,69.6,26.8,30.22,East,101,1.0,5.0,20,0.00,,CLR,0.00,VWS V14.01,2013-04-30 16:37:00,
2013-04-30 12:38:00,69.6,26.8,30.22,ESE,118,0.0,3.0,20,0.00,,CLR,0.00,VWS V14.01,2013-04-30 16:38:00,
2013-04-30 12:39:00,70.0,29.4,30.22,East,84,4.0,4.0,22,0.00,,CLR,0.00,VWS V14.01,2013-04-30 16:39:00,
2013-04-30 12:40:00,70.1,28.4,30.22,ESE,121,5.0,7.0,21,0.00,,CLR,0.00,VWS V14.01,2013-04-30 16:40:00,
2013-04-30 12:41:00,70.3,26.1,30.22,South,172,4.0,7.0,19,0.00,,CLR,0.00,VWS V14.01,2013-04-30 16:41:00,
2013-04-30 12:42:00,-999.0,-99.9,0.00,North,-999,-999.0,-999.0,-999,0.00,,,0.00,weatherlink.com 1.10,2013-04-30 16:42:00,
2013-04-30 12:43:00,70.2,26.0,30.22,SSW,205,6.0,7.0,19,0.00,,CLR,0.00,VWS V14.01,2013-04-30 16:43:00,
2013-04-30 12:44:00,70.2,27.3,30.23,ESE,118,15.0,15.0,20,0.00,,CLR,0.00,VWS V14.01,2013-04-30 16:44:00,
2013-04-30 12:45:00,69.8,25.7,30.22,East,97,4.0,15.0,19,0.00,,CLR,0.00,VWS V14.01,2013-04-30 16:45:00,
2013-04-30 12:46:00,69.6,26.8,30.22,East,101,9.0,15.0,20,0.00,,CLR,0.00,VWS V14.01,2013-04-30 16:46:00,
2013-04-30 12:47:00,69.5,26.7,30.22,SW,225,6.0,15.0,20,0.00,,CLR,0.00,VWS V14.01,2013-04-30 16:47:00,
2013-04-30 12:48:00,69.3,28.9,30.22,SSE,166,4.0,9.0,22,0.00,,CLR,0.00,VWS V14.01,2013-04-30 16:48:00,
2013-04-30 12:49:00,69.3,27.7,30.23,NE,42,2.0,9.0,21,0.00,,CLR,0.00,VWS V14.01,2013-04-30 16:49:00,
2013-04-30 12:50:00,69.4,28.9,30.22,East,98,5.0,8.0,22,0.00,,CLR,0.00,VWS V14.01,2013-04-30 16:50:00,
2013-04-30 12:51:00,69.3,26.5,30.22,NE,56,3.0,8.0,20,0.00,,CLR,0.00,VWS V14.01,2013-04-30 16:51:00,
2013-04-30 12:52:00,69.3,28.9,30.22,NE,34,1.0,8.0,22,0.00,,CLR,0.00,VWS V14.01,2013-04-30 16:52:00,
2013-04-30 12:53:00,69.4,28.9,30.22,NE,55,2.0,8.0,22,0.00,,CLR,0.00,VWS V14.01,2013-04-30 16:53:00,
2013-04-30 12:54:00,69.4,28.9,30.22,NE,39,5.0,5.0,22,0.00,,CLR,0.00,VWS V14.01,2013-04-30 16:54:00,
2013-04-30 12:55:00,69.2,27.6,30.22,North,4,11.0,11.0,21,0.00,,CLR,0.00,VWS V14.01,2013-04-30 16:55:00,
2013-04-30 12:56:00,69.0,27.5,30.22,NE,56,7.0,11.0,21,0.00,,CLR,0.00,VWS V14.01,2013-04-30 16:56:00,
2013-04-30 12:57:00,68.8,27.3,30.22,East,89,3.0,11.0,21,0.00,,CLR,0.00,VWS V14.01,2013-04-30 16:57:00,
2013-04-30 12:58:00,68.8,28.4,30.22,SSE,150,7.0,11.0,22,0.00,,CLR,0.00,VWS V14.01,2013-04-30 16:58:00,
2013-04-30 12:59:00,68.8,28.4,30.23,NE,46,3.0,11.0,22,0.00,,CLR,0.00,VWS V14.01,2013-04-30 16:59:00,
2013-04-30 13:00:00,68.8,27.3,30.22,East,89,1.0,8.0,21,0.00,,CLR,0.00,VWS V14.01,2013-04-30 17:00:00,
2013-04-30 13:01:00,68.9,28.5,30.22,SE,136,6.0,7.0,22,0.00,,CLR,0.00,VWS V14.01,2013-04-30 17:01:00,
2013-04-30 13:02:00,69.0,28.6,30.22,ENE,68,8.0,8.0,22,0.00,,CLR,0.00,VWS V14.01,2013-04-30 17:02:00,
2013-04-30 13:03:00,68.1,28.0,30.23,East,98,5.0,7.0,22,0.00,,,0.00,weatherlink.com 1.10,2013-04-30 17:03:00,
2013-04-30 13:04:00,69.2,28.8,30.22,ESE,110,7.0,8.0,22,0.00,,CLR,0.00,VWS V14.01,2013-04-30 17:04:00,
2013-04-30 13:05:00,69.2,28.8,30.22,ESE,114,9.0,11.0,22,0.00,,CLR,0.00,VWS V14.01,2013-04-30 17:05:00,
2013-04-30 13:06:00,69.1,27.6,30.22,SE,125,13.0,13.0,21,0.00,,CLR,0.00,VWS V14.01,2013-04-30 17:06:00,
2013-04-30 13:07:00,69.0,27.5,30.23,SE,131,9.0,13.0,21,0.00,,CLR,0.00,VWS V14.01,2013-04-30 17:07:00,
2013-04-30 13:08:00,68.8,26.1,30.23,ESE,122,10.0,15.0,20,0.00,,CLR,0.00,VWS V14.01,2013-04-30 17:08:00,
2013-04-30 13:09:00,68.7,28.4,30.23,ESE,114,7.0,15.0,22,0.00,,CLR,0.00,VWS V14.01,2013-04-30 17:09:00,
2013-04-30 13:10:00,68.6,27.1,30.23,SE,136,11.0,15.0,21,0.00,,CLR,0.00,VWS V14.01,2013-04-30 17:10:00,
2013-04-30 13:11:00,68.5,27.1,30.23,WSW,246,3.0,12.0,21,0.00,,CLR,0.00,VWS V14.01,2013-04-30 17:11:00,
2013-04-30 13:12:00,68.5,28.2,30.22,ENE,58,6.0,11.0,22,0.00,,CLR,0.00,VWS V14.01,2013-04-30 17:12:00,
2013-04-30 13:13:00,68.5,29.3,30.22,SSE,150,1.0,11.0,23,0.00,,CLR,0.00,VWS V14.01,2013-04-30 17:13:00,
2013-04-30 13:14:00,68.7,29.4,30.22,East,95,2.0,10.0,23,0.00,,CLR,0.00,VWS V14.01,2013-04-30 17:14:00,
2013-04-30 13:15:00,68.9,28.5,30.22,ENE,66,2.0,6.0,22,0.00,,CLR,0.00,VWS V14.01,2013-04-30 17:15:00,
2013-04-30 13:16:00,69.1,28.7,30.22,ENE,61,4.0,4.0,22,0.00,,CLR,0.00,VWS V14.01,2013-04-30 17:16:00,
2013-04-30 13:17:00,69.1,28.7,30.22,ESE,108,4.0,5.0,22,0.00,,CLR,0.00,VWS V14.01,2013-04-30 17:17:00,
2013-04-30 13:18:00,69.0,27.5,30.22,ENE,58,4.0,5.0,21,0.00,,CLR,0.00,VWS V14.01,2013-04-30 17:18:00,
2013-04-30 13:19:00,68.9,27.4,30.22,SSE,163,3.0,5.0,21,0.00,,CLR,0.00,VWS V14.01,2013-04-30 17:19:00,
2013-04-30 13:20:00,68.9,28.5,30.22,East,92,5.0,5.0,22,0.00,,CLR,0.00,VWS V14.01,2013-04-30 17:20:00,
2013-04-30 13:21:00,68.8,27.3,30.22,SSE,160,5.0,5.0,21,0.00,,CLR,0.00,VWS V14.01,2013-04-30 17:21:00,
2013-04-30 13:22:00,68.8,28.4,30.22,SE,129,1.0,5.0,22,0.00,,CLR,0.00,VWS V14.01,2013-04-30 17:22:00,
2013-04-30 13:23:00,68.9,29.6,30.22,SE,135,1.0,5.0,23,0.00,,CLR,0.00,VWS V14.01,2013-04-30 17:23:00,
2013-04-30 13:24:00,69.2,29.9,30.22,NE,39,2.0,5.0,23,0.00,,CLR,0.00,VWS V14.01,2013-04-30 17:24:00,
2013-04-30 13:25:00,69.2,28.8,30.22,ENE,69,3.0,5.0,22,0.00,,CLR,0.00,VWS V14.01,2013-04-30 17:25:00,
2013-04-30 13:26:00,69.2,28.8,30.22,NE,42,6.0,6.0,22,0.00,,CLR,0.00,VWS V14.01,2013-04-30 17:26:00,
2013-04-30 13:27:00,69.1,27.6,30.22,ESE,116,3.0,6.0,21,0.00,,CLR,0.00,VWS V14.01,2013-04-30 17:27:00,
2013-04-30 13:28:00,68.9,27.4,30.22,SE,131,4.0,6.0,21,0.00,,CLR,0.00,VWS V14.01,2013-04-30 17:28:00,
2013-04-30 13:29:00,-999.0,-99.9,30.23,North,-999,-999.0,-999.0,-999,0.00,,,0.00,weatherlink.com 1.10,2013-04-30 17:29:00,
2013-04-30 13:30:00,68.9,28.5,30.22,ENE,65,2.0,6.0,22,0.00,,CLR,0.00,VWS V14.01,2013-04-30 17:30:00,
2013-04-30 13:31:00,68.9,28.5,30.22,ESE,116,2.0,6.0,22,0.00,,CLR,0.00,VWS V14.01,2013-04-30 17:31:00,
2013-04-30 13:32:00,69.0,28.6,30.22,ESE,105,3.0,8.0,22,0.00,,CLR,0.00,VWS V14.01,2013-04-30 17:32:00,
2013-04-30 13:33:00,69.1,28.7,30.23,ESE,103,2.0,8.0,22,0.00,,CLR,0.00,VWS V14.01,2013-04-30 17:33:00,
2013-04-30 13:34:00,69.2,28.8,30.22,ENE,70,7.0,8.0,22,0.00,,CLR,0.00,VWS V14.01,2013-04-30 17:34:00,
2013-04-30 13:35:00,69.1,27.6,30.22,NNE,24,1.0,8.0,21,0.00,,CLR,0.00,VWS V14.01,2013-04-30 17:35:00,
2013-04-30 13:36:00,69.0,27.5,30.22,NE,51,3.0,7.0,21,0.00,,CLR,0.00,VWS V14.01,2013-04-30 17:36:00,
2013-04-30 13:37:00,68.9,27.4,30.22,ENE,63,5.0,8.0,21,0.00,,CLR,0.00,VWS V14.01,2013-04-30 17:37:00,
2013-04-30 13:38:00,68.7,27.2,30.22,NE,49,3.0,8.0,21,0.00,,CLR,0.00,VWS V14.01,2013-04-30 17:38:00,
2013-04-30 13:39:00,68.7,28.4,30.22,SE,125,10.0,10.0,22,0.00,,CLR,0.00,VWS V14.01,2013-04-30 17:39:00,
2013-04-30 13:40:00,68.7,28.4,30.22,SSE,148,5.0,10.0,22,0.00,,CLR,0.00,VWS V14.01,2013-04-30 17:40:00,
2013-04-30 13:41:00,68.7,28.4,30.22,SSE,150,6.0,10.0,22,0.00,,CLR,0.00,VWS V14.01,2013-04-30 17:41:00,
2013-04-30 13:42:00,68.7,28.4,30.22,East,96,8.0,10.0,22,0.00,,CLR,0.00,VWS V14.01,2013-04-30 17:42:00,
2013-04-30 13:43:00,68.6,27.1,30.22,SE,136,8.0,11.0,21,0.00,,CLR,0.00,VWS V14.01,2013-04-30 17:43:00,
2013-04-30 13:44:00,68.5,28.2,30.22,ESE,105,6.0,11.0,22,0.00,,CLR,0.00,VWS V14.01,2013-04-30 17:44:00,
2013-04-30 13:45:00,68.5,28.2,30.22,ESE,121,5.0,11.0,22,0.00,,CLR,0.00,VWS V14.01,2013-04-30 17:45:00,
2013-04-30 13:46:00,68.2,27.0,30.23,ENE,70,4.0,8.0,21,0.00,,,0.00,weatherlink.com 1.10,2013-04-30 17:46:00,
2013-04-30 13:47:00,68.5,27.1,30.22,ESE,111,2.0,7.0,21,0.00,,CLR,0.00,VWS V14.01,2013-04-30 17:47:00,
2013-04-30 13:48:00,68.6,28.3,30.22,ESE,116,4.0,8.0,22,0.00,,CLR,0.00,VWS V14.01,2013-04-30 17:48:00,
2013-04-30 13:49:00,68.7,29.4,30.22,NE,52,3.0,8.0,23,0.00,,CLR,0.00,VWS V14.01,2013-04-30 17:49:00,
2013-04-30 13:50:00,68.7,28.4,30.22,East,92,2.0,8.0,22,0.00,,CLR,0.00,VWS V14.01,2013-04-30 17:50:00,
2013-04-30 13:51:00,68.8,28.4,30.22,ESE,111,1.0,8.0,22,0.00,,CLR,0.00,VWS V14.01,2013-04-30 17:51:00,
2013-04-30 13:52:00,68.9,29.6,30.22,NE,48,2.0,4.0,23,0.00,,CLR,0.00,VWS V14.01,2013-04-30 17:52:00,
2013-04-30 13:53:00,69.0,28.6,30.22,NE,36,7.0,7.0,22,0.00,,CLR,0.00,VWS V14.01,2013-04-30 17:53:00,
2013-04-30 13:54:00,68.7,27.2,30.22,NE,43,2.0,7.0,21,0.00,,CLR,0.00,VWS V14.01,2013-04-30 17:54:00,
2013-04-30 13:55:00,68.5,27.1,30.22,NE,47,3.0,7.0,21,0.00,,CLR,0.00,VWS V14.01,2013-04-30 17:55:00,
2013-04-30 13:56:00,68.4,27.0,30.22,NNE,32,5.0,9.0,21,0.00,,CLR,0.00,VWS V14.01,2013-04-30 17:56:00,
2013-04-30 13:57:00,68.3,28.0,30.22,East,89,5.0,9.0,22,0.00,,CLR,0.00,VWS V14.01,2013-04-30 17:57:00,
2013-04-30 13:58:00,68.2,27.9,30.22,ESE,110,6.0,9.0,22,0.00,,CLR,0.00,VWS V14.01,2013-04-30 17:58:00,
2013-04-30 13:59:00,68.2,27.9,30.23,SE,143,4.0,12.0,22,0.00,,CLR,0.00,VWS V14.01,2013-04-30 17:59:00,
2013-04-30 14:00:00,68.3,28.0,30.23,SE,134,3.0,12.0,22,0.00,,CLR,0.00,VWS V14.01,2013-04-30 18:00:00,
2013-04-30 14:01:00,68.3,28.0,30.22,SE,141,6.0,12.0,22,0.00,,CLR,0.00,VWS V14.01,2013-04-30 18:01:00,
2013-04-30 14:02:00,68.9,27.0,30.23,SE,142,6.0,11.0,21,0.00,,,0.00,weatherlink.com 1.10,2013-04-30 18:02:00,
2013-04-30 14:03:00,68.3,29.1,30.22,NE,34,2.0,8.0,23,0.00,,CLR,0.00,VWS V14.01,2013-04-30 18:03:00,
2013-04-30 14:04:00,68.2,27.9,30.22,NE,39,4.0,8.0,22,0.00,,CLR,0.00,VWS V14.01,2013-04-30 18:04:00,
2013-04-30 14:05:00,68.1,27.9,30.22,East,98,0.0,8.0,22,0.00,,CLR,0.00,VWS V14.01,2013-04-30 18:05:00,
2013-04-30 14:06:00,68.1,27.9,30.22,SE,127,1.0,8.0,22,0.00,,CLR,0.00,VWS V14.01,2013-04-30 18:06:00,
2013-04-30 14:07:00,68.2,29.0,30.23,ESE,123,6.0,9.0,23,0.00,,CLR,0.00,VWS V14.01,2013-04-30 18:07:00,
2013-04-30 14:08:00,68.1,27.9,30.22,SE,126,6.0,11.0,22,0.00,,CLR,0.00,VWS V14.01,2013-04-30 18:08:00,
2013-04-30 14:09:00,68.1,27.9,30.22,ESE,118,9.0,11.0,22,0.00,,CLR,0.00,VWS V14.01,2013-04-30 18:09:00,
2013-04-30 14:10:00,68.0,27.8,30.23,East,90,9.0,11.0,22,0.00,,CLR,0.00,VWS V14.01,2013-04-30 18:10:00,
2013-04-30 14:11:00,67.9,27.7,30.23,SE,138,8.0,11.0,22,0.00,,CLR,0.00,VWS V14.01,2013-04-30 18:11:00,
2013-04-30 14:12:00,67.9,26.6,30.23,SE,124,4.0,10.0,21,0.00,,CLR,0.00,VWS V14.01,2013-04-30 18:12:00,
2013-04-30 14:13:00,67.9,27.7,30.22,ESE,108,7.0,10.0,22,0.00,,CLR,0.00,VWS V14.01,2013-04-30 18:13:00,
2013-04-30 14:14:00,67.8,26.5,30.23,SSE,148,5.0,10.0,21,0.00,,CLR,0.00,VWS V14.01,2013-04-30 18:14:00,
2013-04-30 14:15:00,67.8,26.5,30.22,ESE,120,3.0,10.0,21,0.00,,CLR,0.00,VWS V14.01,2013-04-30 18:15:00,
2013-04-30 14:16:00,67.7,27.5,30.22,SW,215,1.0,10.0,22,0.00,,CLR,0.00,VWS V14.01,2013-04-30 18:16:00,
2013-04-30 14:17:00,67.8,27.6,30.22,SSW,211,1.0,9.0,22,0.00,,CLR,0.00,VWS V14.01,2013-04-30 18:17:00,
2013-04-30 14:18:00,67.8,27.6,30.23,ENE,65,3.0,5.0,22,0.00,,CLR,0.00,VWS V14.01,2013-04-30 18:18:00,
2013-04-30 14:19:00,68.2,24.0,30.23,WNW,283,1.0,10.0,19,0.00,,,0.00,weatherlink.com 1.10,2013-04-30 18:19:00,
2013-04-30 14:20:00,67.9,27.7,30.22,East,79,2.0,8.0,22,0.00,,CLR,0.00,VWS V14.01,2013-04-30 18:20:00,
2013-04-30 14:21:00,68.0,28.9,30.23,NE,44,2.0,8.0,23,0.00,,CLR,0.00,VWS V14.01,2013-04-30 18:21:00,
2013-04-30 14:22:00,68.0,27.8,30.22,NE,48,3.0,8.0,22,0.00,,CLR,0.00,VWS V14.01,2013-04-30 18:22:00,
2013-04-30 14:23:00,68.0,27.8,30.22,East,97,5.0,5.0,22,0.00,,CLR,0.00,VWS V14.01,2013-04-30 18:23:00,
2013-04-30 14:24:00,67.9,27.7,30.23,NE,37,3.0,5.0,22,0.00,,CLR,0.00,VWS V14.01,2013-04-30 18:24:00,
2013-04-30 14:25:00,67.9,27.7,30.23,NE,52,2.0,5.0,22,0.00,,CLR,0.00,VWS V14.01,2013-04-30 18:25:00,
2013-04-30 14:26:00,67.9,27.7,30.23,East,86,3.0,6.0,22,0.00,,CLR,0.00,VWS V14.01,2013-04-30 18:26:00,
2013-04-30 14:27:00,67.9,27.7,30.23,ESE,107,0.0,6.0,22,0.00,,CLR,0.00,VWS V14.01,2013-04-30 18:27:00,
2013-04-30 14:28:00,68.0,27.8,30.23,NNE,29,4.0,6.0,22,0.00,,CLR,0.00,VWS V14.01,2013-04-30 18:28:00,
2013-04-30 14:29:00,68.0,27.8,30.23,ESE,121,2.0,6.0,22,0.00,,CLR,0.00,VWS V14.01,2013-04-30 18:29:00,
2013-04-30 14:30:00,68.0,27.8,30.23,NNE,29,2.0,5.0,22,0.00,,CLR,0.00,VWS V14.01,2013-04-30 18:30:00,
2013-04-30 14:31:00,68.0,27.8,30.23,NE,56,7.0,11.0,22,0.00,,CLR,0.00,VWS V14.01,2013-04-30 18:31:00,
2013-04-30 14:32:00,67.9,27.7,30.23,ENE,64,3.0,11.0,22,0.00,,CLR,0.00,VWS V14.01,2013-04-30 18:32:00,
2013-04-30 14:33:00,67.9,27.7,30.23,East,83,4.0,11.0,22,0.00,,CLR,0.00,VWS V14.01,2013-04-30 18:33:00,
2013-04-30 14:34:00,68.0,27.8,30.23,SE,130,2.0,11.0,22,0.00,,CLR,0.00,VWS V14.01,2013-04-30 18:34:00,
2013-04-30 14:35:00,68.8,28.0,30.23,East,87,1.0,10.0,22,0.00,,,0.00,weatherlink.com 1.10,2013-04-30 18:35:00,
2013-04-30 14:36:00,68.1,27.9,30.23,ESE,113,6.0,8.0,22,0.00,,CLR,0.00,VWS V14.01,2013-04-30 18:36:00,
2013-04-30 14:37:00,68.0,27.8,30.23,SSE,148,6.0,9.0,22,0.00,,CLR,0.00,VWS V14.01,2013-04-30 18:37:00,
2013-04-30 14:38:00,68.0,27.8,30.23,ESE,122,4.0,9.0,22,0.00,,CLR,0.00,VWS V14.01,2013-04-30 18:38:00,
2013-04-30 14:39:00,67.9,26.6,30.23,SE,128,7.0,9.0,21,0.00,,CLR,0.00,VWS V14.01,2013-04-30 18:39:00,
2013-04-30 14:40:00,67.9,27.7,30.23,East,95,9.0,9.0,22,0.00,,CLR,0.00,VWS V14.01,2013-04-30 18:40:00,
2013-04-30 14:41:00,67.9,27.7,30.23,East,79,3.0,9.0,22,0.00,,CLR,0.00,VWS V14.01,2013-04-30 18:41:00,
2013-04-30 14:42:00,67.9,27.7,30.23,ESE,104,5.0,9.0,22,0.00,,CLR,0.00,VWS V14.01,2013-04-30 18:42:00,
2013-04-30 14:43:00,68.1,28.9,30.23,SSW,208,4.0,9.0,23,0.00,,CLR,0.00,VWS V14.01,2013-04-30 18:43:00,
2013-04-30 14:44:00,68.2,30.1,30.22,NE,46,3.0,6.0,24,0.00,,CLR,0.00,VWS V14.01,2013-04-30 18:44:00,
2013-04-30 14:45:00,68.3,28.0,30.22,NNE,32,3.0,6.0,22,0.00,,CLR,0.00,VWS V14.01,2013-04-30 18:45:00,
2013-04-30 14:46:00,68.3,28.0,30.22,ENE,58,2.0,4.0,22,0.00,,CLR,0.00,VWS V14.01,2013-04-30 18:46:00,
2013-04-30 14:47:00,68.3,29.1,30.23,ENE,75,1.0,4.0,23,0.00,,CLR,0.00,VWS V14.01,2013-04-30 18:47:00,
2013-04-30 14:48:00,68.4,29.2,30.23,East,80,2.0,3.0,23,0.00,,CLR,0.00,VWS V14.01,2013-04-30 18:48:00,
2013-04-30 14:49:00,68.3,26.9,30.23,East,80,4.0,8.0,21,0.00,,CLR,0.00,VWS V14.01,2013-04-30 18:49:00,
2013-04-30 14:50:00,68.2,26.8,30.23,SE,132,3.0,8.0,21,0.00,,CLR,0.00,VWS V14.01,2013-04-30 18:50:00,
2013-04-30 14:51:00,68.1,27.9,30.23,SE,139,6.0,8.0,22,0.00,,CLR,0.00,VWS V14.01,2013-04-30 18:51:00,
2013-04-30 14:52:00,70.1,28.0,30.22,ESE,108,4.0,11.0,21,0.00,,,0.00,weatherlink.com 1.10,2013-04-30 18:52:00,
2013-04-30 14:53:00,68.1,26.7,30.23,ESE,104,8.0,9.0,21,0.00,,CLR,0.00,VWS V14.01,2013-04-30 18:53:00,
2013-04-30 14:54:00,68.0,26.6,30.23,ENE,57,4.0,9.0,21,0.00,,CLR,0.00,VWS V14.01,2013-04-30 18:54:00,
2013-04-30 14:55:00,68.0,26.6,30.23,ESE,102,1.0,9.0,21,0.00,,CLR,0.00,VWS V14.01,2013-04-30 18:55:00,
2013-04-30 14:56:00,68.1,27.9,30.23,East,98,3.0,8.0,22,0.00,,CLR,0.00,VWS V14.01,2013-04-30 18:56:00,
2013-04-30 14:57:00,68.1,27.9,30.23,SE,127,5.0,8.0,22,0.00,,CLR,0.00,VWS V14.01,2013-04-30 18:57:00,
2013-04-30 14:58:00,68.1,26.7,30.23,NE,54,4.0,10.0,21,0.00,,CLR,0.00,VWS V14.01,2013-04-30 18:58:00,
2013-04-30 14:59:00,68.1,27.9,30.23,ESE,123,3.0,10.0,22,0.00,,CLR,0.00,VWS V14.01,2013-04-30 18:59:00,
2013-04-30 15:00:00,68.0,26.6,30.23,SSE,165,3.0,10.0,21,0.00,,CLR,0.00,VWS V14.01,2013-04-30 19:00:00,
2013-04-30 15:01:00,67.9,26.6,30.23,East,101,2.0,10.0,21,0.00,,CLR,0.00,VWS V14.01,2013-04-30 19:01:00,
2013-04-30 15:02:00,67.9,27.7,30.23,ESE,122,5.0,8.0,22,0.00,,CLR,0.00,VWS V14.01,2013-04-30 19:02:00,
2013-04-30 15:03:00,67.9,26.6,30.23,ESE,111,7.0,8.0,21,0.00,,CLR,0.00,VWS V14.01,2013-04-30 19:03:00,
2013-04-30 15:04:00,67.8,26.5,30.23,SE,127,3.0,8.0,21,0.00,,CLR,0.00,VWS V14.01,2013-04-30 19:04:00,
2013-04-30 15:05:00,67.7,26.4,30.23,West,274,2.0,8.0,21,0.00,,CLR,0.00,VWS V14.01,2013-04-30 19:05:00,
2013-04-30 15:06:00,67.8,27.6,30.23,East,80,4.0,8.0,22,0.00,,CLR,0.00,VWS V14.01,2013-04-30 19:06:00,
2013-04-30 15:07:00,67.7,26.4,30.23,East,100,11.0,12.0,21,0.00,,CLR,0.00,VWS V14.01,2013-04-30 19:07:00,
2013-04-30 15:08:00,69.0,27.0,30.22,ENE,70,6.0,10.0,21,0.00,,,0.00,weatherlink.com 1.10,2013-04-30 19:08:00,
2013-04-30 15:09:00,67.5,26.2,30.23,SE,124,5.0,12.0,21,0.00,,CLR,0.00,VWS V14.01,2013-04-30 19:09:00,
2013-04-30 15:10:00,67.5,26.2,30.23,ESE,108,6.0,12.0,21,0.00,,CLR,0.00,VWS V14.01,2013-04-30 19:10:00,
2013-04-30 15:11:00,67.4,26.1,30.23,SSE,160,3.0,9.0,21,0.00,,CLR,0.00,VWS V14.01,2013-04-30 19:11:00,
2013-04-30 15:12:00,67.4,26.1,30.23,East,96,7.0,11.0,21,0.00,,CLR,0.00,VWS V14.01,2013-04-30 19:12:00,
2013-04-30 15:13:00,67.4,26.1,30.23,ESE,115,3.0,11.0,21,0.00,,CLR,0.00,VWS V14.01,2013-04-30 19:13:00,
2013-04-30 15:14:00,67.3,26.1,30.23,SE,127,4.0,11.0,21,0.00,,CLR,0.00,VWS V14.01,2013-04-30 19:14:00,
2013-04-30 15:15:00,67.3,24.9,30.23,ESE,104,4.0,11.0,20,0.00,,CLR,0.00,VWS V14.01,2013-04-30 19:15:00,
2013-04-30 15:16:00,67.2,26.0,30.23,ESE,113,9.0,11.0,21,0.00,,CLR,0.00,VWS V14.01,2013-04-30 19:16:00,
2013-04-30 15:17:00,67.1,24.7,30.23,ESE,117,2.0,10.0,20,0.00,,CLR,0.00,VWS V14.01,2013-04-30 19:17:00,
2013-04-30 15:18:00,67.1,25.9,30.23,ENE,70,4.0,10.0,21,0.00,,CLR,0.00,VWS V14.01,2013-04-30 19:18:00,
2013-04-30 15:19:00,67.1,25.9,30.23,East,81,5.0,10.0,21,0.00,,CLR,0.00,VWS V14.01,2013-04-30 19:19:00,
2013-04-30 15:20:00,67.1,27.0,30.23,NE,51,2.0,10.0,22,0.00,,CLR,0.00,VWS V14.01,2013-04-30 19:20:00,
2013-04-30 15:21:00,67.2,27.1,30.23,East,101,9.0,10.0,22,0.00,,CLR,0.00,VWS V14.01,2013-04-30 19:21:00,
2013-04-30 15:22:00,67.1,25.9,30.23,SE,124,10.0,12.0,21,0.00,,CLR,0.00,VWS V14.01,2013-04-30 19:22:00,
2013-04-30 15:23:00,67.1,25.9,30.23,ESE,120,6.0,12.0,21,0.00,,CLR,0.00,VWS V14.01,2013-04-30 19:23:00,
2013-04-30 15:24:00,67.0,25.8,30.23,East,100,4.0,12.0,21,0.00,,CLR,0.00,VWS V14.01,2013-04-30 19:24:00,
2013-04-30 15:25:00,68.5,29.0,30.22,SSE,148,0.0,16.0,23,0.00,,,0.00,weatherlink.com 1.10,2013-04-30 19:25:00,
2013-04-30 15:26:00,67.0,25.8,30.24,ENE,63,5.0,9.0,21,0.00,,CLR,0.00,VWS V14.01,2013-04-30 19:26:00,
2013-04-30 15:27:00,67.0,25.8,30.23,SE,141,1.0,8.0,21,0.00,,CLR,0.00,VWS V14.01,2013-04-30 19:27:00,
2013-04-30 15:28:00,67.0,25.8,30.24,ESE,109,4.0,9.0,21,0.00,,CLR,0.00,VWS V14.01,2013-04-30 19:28:00,
2013-04-30 15:29:00,67.0,25.8,30.24,ESE,113,6.0,9.0,21,0.00,,CLR,0.00,VWS V14.01,2013-04-30 19:29:00,
2013-04-30 15:30:00,66.9,25.7,30.24,ESE,111,7.0,9.0,21,0.00,,CLR,0.00,VWS V14.01,2013-04-30 19:30:00,
2013-04-30 15:31:00,66.9,25.7,30.24,ENE,75,1.0,9.0,21,0.00,,CLR,0.00,VWS V14.01,2013-04-30 19:31:00,
2013-04-30 15:32:00,66.9,26.9,30.24,East,83,1.0,8.0,22,0.00,,CLR,0.00,VWS V14.01,2013-04-30 19:32:00,
2013-04-30 15:33:00,67.0,28.0,30.24,ESE,115,4.0,8.0,23,0.00,,CLR,0.00,VWS V14.01,2013-04-30 19:33:00,
2013-04-30 15:34:00,67.1,27.0,30.24,East,92,2.0,5.0,22,0.00,,CLR,0.00,VWS V14.01,2013-04-30 19:34:00,
2013-04-30 15:35:00,67.1,25.9,30.24,SE,124,3.0,5.0,21,0.00,,CLR,0.00,VWS V14.01,2013-04-30 19:35:00,
2013-04-30 15:36:00,67.2,27.1,30.24,ESE,113,2.0,5.0,22,0.00,,CLR,0.00,VWS V14.01,2013-04-30 19:36:00,
2013-04-30 15:37:00,67.2,27.1,30.24,ESE,120,1.0,4.0,22,0.00,,CLR,0.00,VWS V14.01,2013-04-30 19:37:00,
2013-04-30 15:38:00,67.2,26.0,30.24,NNE,25,1.0,4.0,21,0.00,,CLR,0.00,VWS V14.01,2013-04-30 19:38:00,
2013-04-30 15:39:00,67.2,26.0,30.24,ENE,63,4.0,6.0,21,0.00,,CLR,0.00,VWS V14.01,2013-04-30 19:39:00,
2013-04-30 15:40:00,67.2,26.0,30.24,ESE,115,7.0,7.0,21,0.00,,CLR,0.00,VWS V14.01,2013-04-30 19:40:00,
2013-04-30 15:41:00,68.9,27.0,30.22,SSE,158,3.0,8.0,21,0.00,,,0.00,weatherlink.com 1.10,2013-04-30 19:41:00,
2013-04-30 15:42:00,67.1,25.9,30.24,East,97,4.0,7.0,21,0.00,,CLR,0.00,VWS V14.01,2013-04-30 19:42:00,
2013-04-30 15:43:00,66.9,24.5,30.24,East,94,3.0,7.0,20,0.00,,CLR,0.00,VWS V14.01,2013-04-30 19:43:00,
2013-04-30 15:44:00,66.8,24.5,30.24,ESE,113,7.0,8.0,20,0.00,,CLR,0.00,VWS V14.01,2013-04-30 19:44:00,
2013-04-30 15:45:00,66.7,24.4,30.24,SE,138,2.0,9.0,20,0.00,,CLR,0.00,VWS V14.01,2013-04-30 19:45:00,
2013-04-30 15:46:00,66.7,25.6,30.24,SE,131,1.0,9.0,21,0.00,,CLR,0.00,VWS V14.01,2013-04-30 19:46:00,
2013-04-30 15:47:00,66.6,25.5,30.24,ESE,121,4.0,10.0,21,0.00,,CLR,0.00,VWS V14.01,2013-04-30 19:47:00,
2013-04-30 15:48:00,66.5,24.2,30.24,ESE,112,4.0,10.0,20,0.00,,CLR,0.00,VWS V14.01,2013-04-30 19:48:00,
2013-04-30 15:49:00,66.4,24.1,30.24,North,353,3.0,10.0,20,0.00,,CLR,0.00,VWS V14.01,2013-04-30 19:49:00,
2013-04-30 15:50:00,66.4,25.3,30.24,SE,133,2.0,8.0,21,0.00,,CLR,0.00,VWS V14.01,2013-04-30 19:50:00,
2013-04-30 15:51:00,66.4,25.3,30.24,SE,141,1.0,8.0,21,0.00,,CLR,0.00,VWS V14.01,2013-04-30 19:51:00,
2013-04-30 15:52:00,66.4,25.3,30.24,ESE,120,5.0,8.0,21,0.00,,CLR,0.00,VWS V14.01,2013-04-30 19:52:00,
2013-04-30 15:53:00,66.4,25.3,30.24,ESE,111,7.0,7.0,21,0.00,,CLR,0.00,VWS V14.01,2013-04-30 19:53:00,
2013-04-30 15:54:00,66.4,25.3,30.24,ESE,121,4.0,7.0,21,0.00,,CLR,0.00,VWS V14.01,2013-04-30 19:54:00,
2013-04-30 15:55:00,66.3,25.2,30.24,ESE,113,6.0,7.0,21,0.00,,CLR,0.00,VWS V14.01,2013-04-30 19:55:00,
2013-04-30 15:56:00,66.2,24.0,30.24,ESE,104,8.0,12.0,20,0.00,,CLR,0.00,VWS V14.01,2013-04-30 19:56:00,
2013-04-30 15:57:00,68.5,28.0,30.22,SE,138,4.0,13.0,22,0.00,,,0.00,weatherlink.com 1.10,2013-04-30 19:57:00,
2013-04-30 15:58:00,66.0,25.0,30.24,SE,130,8.0,12.0,21,0.00,,CLR,0.00,VWS V14.01,2013-04-30 19:58:00,
2013-04-30 15:59:00,65.9,23.7,30.24,ESE,121,4.0,12.0,20,0.00,,CLR,0.00,VWS V14.01,2013-04-30 19:59:00,
2013-04-30 16:00:00,65.9,24.9,30.24,ESE,114,1.0,10.0,21,0.00,,CLR,0.00,VWS V14.01,2013-04-30 20:00:00,
2013-04-30 16:01:00,65.8,25.9,30.24,NE,34,2.0,10.0,22,0.00,,CLR,0.00,VWS V14.01,2013-04-30 20:01:00,
2013-04-30 16:02:00,65.8,24.8,30.24,ENE,61,4.0,6.0,21,0.00,,CLR,0.00,VWS V14.01,2013-04-30 20:02:00,
2013-04-30 16:03:00,65.8,25.9,30.24,NNE,27,3.0,5.0,22,0.00,,CLR,0.00,VWS V14.01,2013-04-30 20:03:00,
2013-04-30 16:04:00,65.7,24.7,30.24,NE,53,1.0,5.0,21,0.00,,CLR,0.00,VWS V14.01,2013-04-30 20:04:00,
2013-04-30 16:05:00,65.6,25.8,30.24,North,353,2.0,5.0,22,0.00,,CLR,0.00,VWS V14.01,2013-04-30 20:05:00,
2013-04-30 16:06:00,65.6,25.8,30.24,ENE,66,1.0,4.0,22,0.00,,CLR,0.00,VWS V14.01,2013-04-30 20:06:00,
2013-04-30 16:07:00,65.5,24.6,30.24,East,89,1.0,4.0,21,0.00,,CLR,0.00,VWS V14.01,2013-04-30 20:07:00,
2013-04-30 16:08:00,65.5,25.7,30.24,ESE,115,9.0,9.0,22,0.00,,CLR,0.00,VWS V14.01,2013-04-30 20:08:00,
2013-04-30 16:09:00,65.4,24.5,30.24,ENE,78,3.0,9.0,21,0.00,,CLR,0.00,VWS V14.01,2013-04-30 20:09:00,
2013-04-30 16:10:00,65.4,24.5,30.24,East,97,1.0,9.0,21,0.00,,CLR,0.00,VWS V14.01,2013-04-30 20:10:00,
2013-04-30 16:11:00,65.4,24.5,30.24,ESE,111,1.0,9.0,21,0.00,,CLR,0.00,VWS V14.01,2013-04-30 20:11:00,
2013-04-30 16:12:00,65.3,25.5,30.24,East,86,3.0,5.0,22,0.00,,CLR,0.00,VWS V14.01,2013-04-30 20:12:00,
2013-04-30 16:13:00,65.3,25.5,30.24,East,101,1.0,4.0,22,0.00,,CLR,0.00,VWS V14.01,2013-04-30 20:13:00,
2013-04-30 16:14:00,68.3,28.0,30.23,SE,125,3.0,15.0,22,0.00,,,0.00,weatherlink.com 1.10,2013-04-30 20:14:00,
2013-04-30 16:15:00,65.2,25.4,30.24,NE,34,4.0,8.0,22,0.00,,CLR,0.00,VWS V14.01,2013-04-30 20:15:00,
2013-04-30 16:16:00,65.1,24.2,30.24,East,81,3.0,8.0,21,0.00,,CLR,0.00,VWS V14.01,2013-04-30 20:16:00,
2013-04-30 16:17:00,65.0,25.3,30.24,ENE,68,5.0,8.0,22,0.00,,CLR,0.00,VWS V14.01,2013-04-30 20:17:00,
2013-04-30 16:18:00,64.9,25.2,30.24,East,90,4.0,8.0,22,0.00,,CLR,0.00,VWS V14.01,2013-04-30 20:18:00,
2013-04-30 16:19:00,64.9,24.1,30.24,ESE,113,4.0,8.0,21,0.00,,CLR,0.00,VWS V14.01,2013-04-30 20:19:00,
2013-04-30 16:20:00,64.8,24.0,30.24,SE,124,6.0,8.0,21,0.00,,CLR,0.00,VWS V14.01,2013-04-30 20:20:00,
2013-04-30 16:21:00,64.7,23.9,30.24,ENE,72,4.0,8.0,21,0.00,,CLR,0.00,VWS V14.01,2013-04-30 20:21:00,
2013-04-30 16:22:00,64.7,23.9,30.24,ESE,115,6.0,8.0,21,0.00,,CLR,0.00,VWS V14.01,2013-04-30 20:22:00,
2013-04-30 16:23:00,64.6,23.8,30.24,ENE,58,2.0,7.0,21,0.00,,CLR,0.00,VWS V14.01,2013-04-30 20:23:00,
2013-04-30 16:24:00,64.6,23.8,30.24,ESE,103,8.0,10.0,21,0.00,,CLR,0.00,VWS V14.01,2013-04-30 20:24:00,
2013-04-30 16:25:00,64.5,23.7,30.24,ENE,73,2.0,10.0,21,0.00,,CLR,0.00,VWS V14.01,2013-04-30 20:25:00,
2013-04-30 16:26:00,64.5,24.8,30.24,SE,128,10.0,10.0,22,0.00,,CLR,0.00,VWS V14.01,2013-04-30 20:26:00,
2013-04-30 16:27:00,64.4,24.8,30.24,SE,127,7.0,10.0,22,0.00,,CLR,0.00,VWS V14.01,2013-04-30 20:27:00,
2013-04-30 16:28:00,64.3,23.6,30.24,ENE,76,2.0,10.0,21,0.00,,CLR,0.00,VWS V14.01,2013-04-30 20:28:00,
2013-04-30 16:29:00,64.3,24.7,30.24,SE,126,2.0,10.0,22,0.00,,CLR,0.00,VWS V14.01,2013-04-30 20:29:00,
2013-04-30 16:30:00,67.8,27.0,30.22,NE,36,3.0,12.0,22,0.00,,,0.00,weatherlink.com 1.10,2013-04-30 20:30:00,
2013-04-30 16:31:00,64.2,23.5,30.24,ESE,118,7.0,7.0,21,0.00,,CLR,0.00,VWS V14.01,2013-04-30 20:31:00,
2013-04-30 16:32:00,64.2,24.6,30.24,SE,141,4.0,7.0,22,0.00,,CLR,0.00,VWS V14.01,2013-04-30 20:32:00,
2013-04-30 16:33:00,64.1,23.4,30.24,SE,136,5.0,7.0,21,0.00,,CLR,0.00,VWS V14.01,2013-04-30 20:33:00,
2013-04-30 16:34:00,64.1,24.5,30.24,SE,134,7.0,7.0,22,0.00,,CLR,0.00,VWS V14.01,2013-04-30 20:34:00,
2013-04-30 16:35:00,64.0,24.4,30.24,ESE,116,9.0,9.0,22,0.00,,CLR,0.00,VWS V14.01,2013-04-30 20:35:00,
2013-04-30 16:36:00,64.0,23.3,30.25,ESE,122,6.0,9.0,21,0.00,,CLR,0.00,VWS V14.01,2013-04-30 20:36:00,
2013-04-30 16:37:00,64.0,23.3,30.25,WSW,240,3.0,9.0,21,0.00,,CLR,0.00,VWS V14.01,2013-04-30 20:37:00,
2013-04-30 16:38:00,63.9,23.2,30.25,ESE,114,7.0,9.0,21,0.00,,CLR,0.00,VWS V14.01,2013-04-30 20:38:00,
2013-04-30 16:39:00,63.8,23.1,30.25,East,92,4.0,9.0,21,0.00,,CLR,0.00,VWS V14.01,2013-04-30 20:39:00,
2013-04-30 16:40:00,63.8,23.1,30.25,SE,129,1.0,9.0,21,0.00,,CLR,0.00,VWS V14.01,2013-04-30 20:40:00,
2013-04-30 16:41:00,63.7,23.1,30.25,SE,125,9.0,9.0,21,0.00,,CLR,0.00,VWS V14.01,2013-04-30 20:41:00,
2013-04-30 16:42:00,63.7,23.1,30.25,ESE,122,9.0,9.0,21,0.00,,CLR,0.00,VWS V14.01,2013-04-30 20:42:00,
2013-04-30 16:43:00,63.6,23.0,30.24,SSE,148,8.0,10.0,21,0.00,,CLR,0.00,VWS V14.01,2013-04-30 20:43:00,
2013-04-30 16:44:00,63.5,22.9,30.24,SE,132,6.0,10.0,21,0.00,,CLR,0.00,VWS V14.01,2013-04-30 20:44:00,
2013-04-30 16:45:00,63.5,22.9,30.25,SE,127,6.0,10.0,21,0.00,,CLR,0.00,VWS V14.01,2013-04-30 20:45:00,
2013-04-30 16:46:00,68.0,28.0,30.23,ENE,58,1.0,10.0,22,0.00,,,0.00,weatherlink.com 1.10,2013-04-30 20:46:00,
2013-04-30 16:47:00,63.4,22.8,30.25,SE,135,4.0,7.0,21,0.00,,CLR,0.00,VWS V14.01,2013-04-30 20:47:00,
2013-04-30 16:48:00,63.3,23.8,30.24,ESE,103,5.0,7.0,22,0.00,,CLR,0.00,VWS V14.01,2013-04-30 20:48:00,
2013-04-30 16:49:00,63.2,23.8,30.25,SE,128,9.0,9.0,22,0.00,,CLR,0.00,VWS V14.01,2013-04-30 20:49:00,
2013-04-30 16:50:00,63.2,22.6,30.25,SSE,150,8.0,9.0,21,0.00,,CLR,0.00,VWS V14.01,2013-04-30 20:50:00,
2013-04-30 16:51:00,63.1,22.6,30.25,ENE,78,9.0,12.0,21,0.00,,CLR,0.00,VWS V14.01,2013-04-30 20:51:00,
2013-04-30 16:52:00,63.0,22.5,30.25,SE,143,9.0,12.0,21,0.00,,CLR,0.00,VWS V14.01,2013-04-30 20:52:00,
2013-04-30 16:53:00,63.0,22.5,30.25,East,79,2.0,12.0,21,0.00,,CLR,0.00,VWS V14.01,2013-04-30 20:53:00,
2013-04-30 16:54:00,63.0,22.5,30.25,ESE,110,3.0,12.0,21,0.00,,CLR,0.00,VWS V14.01,2013-04-30 20:54:00,
2013-04-30 16:55:00,62.9,22.4,30.25,ENE,75,4.0,10.0,21,0.00,,CLR,0.00,VWS V14.01,2013-04-30 20:55:00,
2013-04-30 16:56:00,62.8,23.4,30.25,ESE,108,3.0,10.0,22,0.00,,CLR,0.00,VWS V14.01,2013-04-30 20:56:00,
2013-04-30 16:57:00,62.8,23.4,30.25,ESE,114,6.0,9.0,22,0.00,,CLR,0.00,VWS V14.01,2013-04-30 20:57:00,
2013-04-30 16:58:00,62.7,22.2,30.25,East,95,10.0,10.0,21,0.00,,CLR,0.00,VWS V14.01,2013-04-30 20:58:00,
2013-04-30 16:59:00,62.7,22.2,30.25,East,79,4.0,10.0,21,0.00,,CLR,0.00,VWS V14.01,2013-04-30 20:59:00,
2013-04-30 17:00:00,62.6,23.2,30.25,SE,127,5.0,10.0,22,0.00,,CLR,0.00,VWS V14.01,2013-04-30 21:00:00,
2013-04-30 17:01:00,62.6,23.2,30.25,ESE,103,2.0,10.0,22,0.00,,CLR,0.00,VWS V14.01,2013-04-30 21:01:00,
2013-04-30 17:02:00,62.5,23.2,30.25,SE,129,6.0,10.0,22,0.00,,CLR,0.00,VWS V14.01,2013-04-30 21:02:00,
2013-04-30 17:03:00,68.1,28.0,30.23,ESE,109,5.0,8.0,22,0.00,,,0.00,weatherlink.com 1.10,2013-04-30 21:03:00,
2013-04-30 17:04:00,62.3,23.0,30.25,East,88,3.0,6.0,22,0.00,,CLR,0.00,VWS V14.01,2013-04-30 21:04:00,
2013-04-30 17:05:00,62.3,23.0,30.25,SE,125,7.0,7.0,22,0.00,,CLR,0.00,VWS V14.01,2013-04-30 21:05:00,
2013-04-30 17:06:00,62.2,24.0,30.25,SE,128,3.0,7.0,23,0.00,,CLR,0.00,VWS V14.01,2013-04-30 21:06:00,
2013-04-30 17:07:00,62.2,22.9,30.25,ESE,110,6.0,8.0,22,0.00,,CLR,0.00,VWS V14.01,2013-04-30 21:07:00,
2013-04-30 17:08:00,62.1,22.8,30.25,SE,124,4.0,8.0,22,0.00,,CLR,0.00,VWS V14.01,2013-04-30 21:08:00,
2013-04-30 17:09:00,62.0,22.8,30.25,SSE,161,6.0,8.0,22,0.00,,CLR,0.00,VWS V14.01,2013-04-30 21:09:00,
2013-04-30 17:10:00,62.0,23.8,30.25,SSE,153,2.0,8.0,23,0.00,,CLR,0.00,VWS V14.01,2013-04-30 21:10:00,
2013-04-30 17:11:00,61.9,23.7,30.25,ESE,117,6.0,8.0,23,0.00,,CLR,0.00,VWS V14.01,2013-04-30 21:11:00,
2013-04-30 17:12:00,61.8,23.6,30.25,ENE,76,5.0,9.0,23,0.00,,CLR,0.00,VWS V14.01,2013-04-30 21:12:00,
2013-04-30 17:13:00,61.8,23.6,30.25,SSE,149,6.0,9.0,23,0.00,,CLR,0.00,VWS V14.01,2013-04-30 21:13:00,
2013-04-30 17:14:00,61.7,23.5,30.25,ESE,114,4.0,9.0,23,0.00,,CLR,0.00,VWS V14.01,2013-04-30 21:14:00,
2013-04-30 17:15:00,61.6,23.5,30.25,East,94,5.0,7.0,23,0.00,,CLR,0.00,VWS V14.01,2013-04-30 21:15:00,
2013-04-30 17:16:00,61.5,23.4,30.25,ESE,104,4.0,8.0,23,0.00,,CLR,0.00,VWS V14.01,2013-04-30 21:16:00,
2013-04-30 17:17:00,61.4,23.3,30.25,ESE,115,6.0,8.0,23,0.00,,CLR,0.00,VWS V14.01,2013-04-30 21:17:00,
2013-04-30 17:18:00,61.4,23.3,30.25,ESE,103,5.0,9.0,23,0.00,,CLR,0.00,VWS V14.01,2013-04-30 21:18:00,
2013-04-30 17:19:00,61.3,23.2,30.25,SE,145,6.0,9.0,23,0.00,,CLR,0.00,VWS V14.01,2013-04-30 21:19:00,
2013-04-30 17:20:00,67.7,26.0,30.23,SE,131,4.0,12.0,21,0.00,,,0.00,weatherlink.com 1.10,2013-04-30 21:20:00,
2013-04-30 17:21:00,61.1,23.0,30.26,ESE,105,3.0,9.0,23,0.00,,CLR,0.00,VWS V14.01,2013-04-30 21:21:00,
2013-04-30 17:22:00,61.0,23.0,30.26,East,93,10.0,10.0,23,0.00,,CLR,0.00,VWS V14.01,2013-04-30 21:22:00,
2013-04-30 17:23:00,60.9,22.9,30.26,East,98,2.0,10.0,23,0.00,,CLR,0.00,VWS V14.01,2013-04-30 21:23:00,
2013-04-30 17:24:00,60.9,23.9,30.26,SE,141,1.0,10.0,24,0.00,,CLR,0.00,VWS V14.01,2013-04-30 21:24:00,
2013-04-30 17:25:00,60.8,22.8,30.26,ESE,111,2.0,10.0,23,0.00,,CLR,0.00,VWS V14.01,2013-04-30 21:25:00,
2013-04-30 17:26:00,60.7,22.7,30.26,ESE,117,4.0,6.0,23,0.00,,CLR,0.00,VWS V14.01,2013-04-30 21:26:00,
2013-04-30 17:27:00,60.6,23.6,30.26,ESE,105,3.0,6.0,24,0.00,,CLR,0.00,VWS V14.01,2013-04-30 21:27:00,
2013-04-30 17:28:00,60.5,22.5,30.26,SE,124,4.0,6.0,23,0.00,,CLR,0.00,VWS V14.01,2013-04-30 21:28:00,
2013-04-30 17:29:00,60.4,22.5,30.26,ESE,122,4.0,6.0,23,0.00,,CLR,0.00,VWS V14.01,2013-04-30 21:29:00,
2013-04-30 17:30:00,60.4,22.5,30.26,ESE,122,4.0,7.0,23,0.00,,CLR,0.00,VWS V14.01,2013-04-30 21:30:00,
2013-04-30 17:31:00,60.3,22.4,30.26,ESE,121,3.0,7.0,23,0.00,,CLR,0.00,VWS V14.01,2013-04-30 21:31:00,
2013-04-30 17:32:00,60.3,23.4,30.26,SE,129,1.0,7.0,24,0.00,,CLR,0.00,VWS V14.01,2013-04-30 21:32:00,
2013-04-30 17:33:00,60.2,23.3,30.26,SSE,148,4.0,7.0,24,0.00,,CLR,0.00,VWS V14.01,2013-04-30 21:33:00,
2013-04-30 17:34:00,60.1,23.2,30.26,SE,125,2.0,5.0,24,0.00,,CLR,0.00,VWS V14.01,2013-04-30 21:34:00,
2013-04-30 17:35:00,60.0,24.1,30.26,East,97,2.0,5.0,25,0.00,,CLR,0.00,VWS V14.01,2013-04-30 21:35:00,
2013-04-30 17:36:00,67.0,26.0,30.23,ESE,109,5.0,12.0,21,0.00,,,0.00,weatherlink.com 1.10,2013-04-30 21:36:00,
2013-04-30 17:37:00,59.7,23.9,30.26,SE,135,1.0,4.0,25,0.00,,CLR,0.00,VWS V14.01,2013-04-30 21:37:00,
2013-04-30 17:38:00,59.7,23.9,30.26,ESE,105,3.0,5.0,25,0.00,,CLR,0.00,VWS V14.01,2013-04-30 21:38:00,
2013-04-30 17:39:00,59.6,23.8,30.26,ESE,105,1.0,5.0,25,0.00,,CLR,0.00,VWS V14.01,2013-04-30 21:39:00,
2013-04-30 17:40:00,59.5,23.7,30.26,SE,125,4.0,5.0,25,0.00,,CLR,0.00,VWS V14.01,2013-04-30 21:40:00,
2013-04-30 17:41:00,59.4,23.6,30.26,ESE,120,2.0,6.0,25,0.00,,CLR,0.00,VWS V14.01,2013-04-30 21:41:00,
2013-04-30 17:42:00,59.4,24.5,30.26,SE,139,5.0,6.0,26,0.00,,CLR,0.00,VWS V14.01,2013-04-30 21:42:00,
2013-04-30 17:43:00,59.3,24.4,30.26,SSE,148,1.0,6.0,26,0.00,,CLR,0.00,VWS V14.01,2013-04-30 21:43:00,
2013-04-30 17:44:00,59.2,24.4,30.26,ESE,113,4.0,5.0,26,0.00,,CLR,0.00,VWS V14.01,2013-04-30 21:44:00,
2013-04-30 17:45:00,59.2,24.4,30.26,ESE,108,1.0,5.0,26,0.00,,CLR,0.00,VWS V14.01,2013-04-30 21:45:00,
2013-04-30 17:46:00,59.1,24.3,30.26,SE,139,3.0,4.0,26,0.00,,CLR,0.00,VWS V14.01,2013-04-30 21:46:00,
2013-04-30 17:47:00,59.0,24.2,30.26,SSE,150,3.0,4.0,26,0.00,,CLR,0.00,VWS V14.01,2013-04-30 21:47:00,
2013-04-30 17:48:00,58.9,25.0,30.26,East,88,1.0,4.0,27,0.00,,CLR,0.00,VWS V14.01,2013-04-30 21:48:00,
2013-04-30 17:49:00,58.8,24.9,30.26,SE,144,3.0,4.0,27,0.00,,CLR,0.00,VWS V14.01,2013-04-30 21:49:00,
2013-04-30 17:50:00,58.7,24.8,30.26,SE,136,3.0,4.0,27,0.00,,CLR,0.00,VWS V14.01,2013-04-30 21:50:00,
2013-04-30 17:51:00,58.6,24.8,30.26,ESE,112,2.0,4.0,27,0.00,,CLR,0.00,VWS V14.01,2013-04-30 21:51:00,
2013-04-30 17:52:00,67.2,27.0,30.24,East,84,5.0,10.0,22,0.00,,,0.00,weatherlink.com 1.10,2013-04-30 21:52:00,
2013-04-30 17:53:00,58.4,25.5,30.26,ESE,110,2.0,4.0,28,0.00,,CLR,0.00,VWS V14.01,2013-04-30 21:53:00,
2013-04-30 17:54:00,58.4,25.5,30.26,ESE,114,2.0,4.0,28,0.00,,CLR,0.00,VWS V14.01,2013-04-30 21:54:00,
2013-04-30 17:55:00,58.2,25.3,30.26,ESE,113,3.0,4.0,28,0.00,,CLR,0.00,VWS V14.01,2013-04-30 21:55:00,
2013-04-30 17:56:00,58.2,25.3,30.26,SE,127,3.0,3.0,28,0.00,,CLR,0.00,VWS V14.01,2013-04-30 21:56:00,
2013-04-30 17:57:00,58.1,24.3,30.26,ESE,112,5.0,5.0,27,0.00,,CLR,0.00,VWS V14.01,2013-04-30 21:57:00,
2013-04-30 17:58:00,58.1,24.3,30.26,ESE,114,4.0,5.0,27,0.00,,CLR,0.00,VWS V14.01,2013-04-30 21:58:00,
2013-04-30 17:59:00,58.0,25.1,30.26,East,98,4.0,5.0,28,0.00,,CLR,0.00,VWS V14.01,2013-04-30 21:59:00,
2013-04-30 18:00:00,58.0,24.2,30.26,ESE,122,4.0,5.0,27,0.00,,CLR,0.00,VWS V14.01,2013-04-30 22:00:00,
2013-04-30 18:01:00,57.9,24.1,30.27,SE,124,3.0,4.0,27,0.00,,CLR,0.00,VWS V14.01,2013-04-30 22:01:00,
2013-04-30 18:02:00,57.9,24.1,30.27,ESE,105,2.0,4.0,27,0.00,,CLR,0.00,VWS V14.01,2013-04-30 22:02:00,
2013-04-30 18:03:00,57.8,24.1,30.27,SE,141,1.0,4.0,27,0.00,,CLR,0.00,VWS V14.01,2013-04-30 22:03:00,
2013-04-30 18:04:00,57.7,24.0,30.27,SE,124,0.0,4.0,27,0.00,,CLR,0.00,VWS V14.01,2013-04-30 22:04:00,
2013-04-30 18:05:00,57.7,24.0,30.27,ESE,115,1.0,3.0,27,0.00,,CLR,0.00,VWS V14.01,2013-04-30 22:05:00,
2013-04-30 18:06:00,57.6,23.9,30.27,SE,129,0.0,3.0,27,0.00,,CLR,0.00,VWS V14.01,2013-04-30 22:06:00,
2013-04-30 18:07:00,57.5,23.8,30.27,SE,129,0.0,2.0,27,0.00,,CLR,0.00,VWS V14.01,2013-04-30 22:07:00,
2013-04-30 18:08:00,57.4,22.8,30.27,ESE,114,6.0,6.0,26,0.00,,CLR,0.00,VWS V14.01,2013-04-30 22:08:00,
2013-04-30 18:09:00,66.1,24.0,30.24,SE,141,3.0,11.0,20,0.00,,,0.00,weatherlink.com 1.10,2013-04-30 22:09:00,
2013-04-30 18:10:00,57.3,22.7,30.27,ESE,120,1.0,6.0,26,0.00,,CLR,0.00,VWS V14.01,2013-04-30 22:10:00,
2013-04-30 18:11:00,57.3,23.6,30.27,ESE,120,0.0,6.0,27,0.00,,CLR,0.00,VWS V14.01,2013-04-30 22:11:00,
2013-04-30 18:12:00,57.2,23.5,30.27,ESE,111,4.0,4.0,27,0.00,,CLR,0.00,VWS V14.01,2013-04-30 22:12:00,
2013-04-30 18:13:00,57.2,22.6,30.27,East,94,1.0,4.0,26,0.00,,CLR,0.00,VWS V14.01,2013-04-30 22:13:00,
2013-04-30 18:14:00,57.1,22.6,30.27,East,95,0.0,4.0,26,0.00,,CLR,0.00,VWS V14.01,2013-04-30 22:14:00,
2013-04-30 18:15:00,57.0,22.5,30.27,East,94,0.0,4.0,26,0.00,,CLR,0.00,VWS V14.01,2013-04-30 22:15:00,
2013-04-30 18:16:00,57.0,22.5,30.27,East,94,0.0,4.0,26,0.00,,CLR,0.00,VWS V14.01,2013-04-30 22:16:00,
2013-04-30 18:17:00,56.9,22.4,30.27,East,93,1.0,1.0,26,0.00,,CLR,0.00,VWS V14.01,2013-04-30 22:17:00,
2013-04-30 18:18:00,56.8,22.3,30.27,East,93,0.0,1.0,26,0.00,,CLR,0.00,VWS V14.01,2013-04-30 22:18:00,
2013-04-30 18:19:00,56.7,22.2,30.27,East,93,1.0,1.0,26,0.00,,CLR,0.00,VWS V14.01,2013-04-30 22:19:00,
2013-04-30 18:20:00,56.7,22.2,30.27,East,93,0.0,1.0,26,0.00,,CLR,0.00,VWS V14.01,2013-04-30 22:20:00,
2013-04-30 18:21:00,56.6,22.1,30.27,East,97,1.0,1.0,26,0.00,,CLR,0.00,VWS V14.01,2013-04-30 22:21:00,
2013-04-30 18:22:00,56.6,22.1,30.27,SE,135,2.0,2.0,26,0.00,,CLR,0.00,VWS V14.01,2013-04-30 22:22:00,
2013-04-30 18:23:00,56.5,22.0,30.27,East,99,3.0,3.0,26,0.00,,CLR,0.00,VWS V14.01,2013-04-30 22:23:00,
2013-04-30 18:24:00,56.5,22.0,30.27,ESE,108,2.0,3.0,26,0.00,,CLR,0.00,VWS V14.01,2013-04-30 22:24:00,
2013-04-30 18:25:00,56.5,22.0,30.27,ESE,103,1.0,3.0,26,0.00,,CLR,0.00,VWS V14.01,2013-04-30 22:25:00,
2013-04-30 18:26:00,65.3,25.0,30.24,NE,42,2.0,8.0,22,0.00,,,0.00,weatherlink.com 1.10,2013-04-30 22:26:00,
2013-04-30 18:27:00,56.4,22.9,30.27,SE,144,3.0,3.0,27,0.00,,CLR,0.00,VWS V14.01,2013-04-30 22:27:00,
2013-04-30 18:28:00,56.3,22.8,30.27,ESE,120,2.0,3.0,27,0.00,,CLR,0.00,VWS V14.01,2013-04-30 22:28:00,
2013-04-30 18:29:00,56.3,22.8,30.27,SE,138,2.0,3.0,27,0.00,,CLR,0.00,VWS V14.01,2013-04-30 22:29:00,
2013-04-30 18:30:00,56.2,22.7,30.27,SE,131,3.0,3.0,27,0.00,,CLR,0.00,VWS V14.01,2013-04-30 22:30:00,
2013-04-30 18:31:00,56.2,22.7,30.27,SE,132,1.0,3.0,27,0.00,,CLR,0.00,VWS V14.01,2013-04-30 22:31:00,
2013-04-30 18:32:00,56.1,22.6,30.27,East,101,2.0,3.0,27,0.00,,CLR,0.00,VWS V14.01,2013-04-30 22:32:00,
2013-04-30 18:33:00,56.1,22.6,30.27,ESE,121,3.0,3.0,27,0.00,,CLR,0.00,VWS V14.01,2013-04-30 22:33:00,
2013-04-30 18:34:00,56.1,22.6,30.27,ESE,114,2.0,3.0,27,0.00,,CLR,0.00,VWS V14.01,2013-04-30 22:34:00,
2013-04-30 18:35:00,56.0,22.5,30.27,SSE,158,1.0,3.0,27,0.00,,CLR,0.00,VWS V14.01,2013-04-30 22:35:00,
2013-04-30 18:36:00,55.9,22.4,30.27,SSE,158,1.0,3.0,27,0.00,,CLR,0.00,VWS V14.01,2013-04-30 22:36:00,
2013-04-30 18:37:00,55.8,22.3,30.27,SE,130,1.0,2.0,27,0.00,,CLR,0.00,VWS V14.01,2013-04-30 22:37:00,
2013-04-30 18:38:00,55.8,22.3,30.27,SSE,148,0.0,2.0,27,0.00,,CLR,0.00,VWS V14.01,2013-04-30 22:38:00,
2013-04-30 18:39:00,55.7,22.3,30.27,SE,128,0.0,1.0,27,0.00,,CLR,0.00,VWS V14.01,2013-04-30 22:39:00,
2013-04-30 18:40:00,55.7,22.3,30.27,SE,127,0.0,1.0,27,0.00,,CLR,0.00,VWS V14.01,2013-04-30 22:40:00,
2013-04-30 18:41:00,55.6,22.2,30.28,SE,129,0.0,1.0,27,0.00,,CLR,0.00,VWS V14.01,2013-04-30 22:41:00,
2013-04-30 18:42:00,64.3,24.0,30.24,ESE,104,5.0,10.0,22,0.00,,,0.00,weatherlink.com 1.10,2013-04-30 22:42:00,
2013-04-30 18:43:00,55.5,23.0,30.28,SE,127,0.0,1.0,28,0.00,,CLR,0.00,VWS V14.01,2013-04-30 22:43:00,
2013-04-30 18:44:00,55.4,22.9,30.28,SE,128,0.0,1.0,28,0.00,,CLR,0.00,VWS V14.01,2013-04-30 22:44:00,
2013-04-30 18:45:00,55.3,22.8,30.28,SE,127,0.0,1.0,28,0.00,,CLR,0.00,VWS V14.01,2013-04-30 22:45:00,
2013-04-30 18:46:00,55.3,22.8,30.28,SE,128,1.0,1.0,28,0.00,,CLR,0.00,VWS V14.01,2013-04-30 22:46:00,
2013-04-30 18:47:00,55.2,23.5,30.28,ESE,117,1.0,2.0,29,0.00,,CLR,0.00,VWS V14.01,2013-04-30 22:47:00,
2013-04-30 18:48:00,55.1,23.4,30.28,SE,124,1.0,2.0,29,0.00,,CLR,0.00,VWS V14.01,2013-04-30 22:48:00,
2013-04-30 18:49:00,55.1,23.4,30.28,SE,127,1.0,2.0,29,0.00,,CLR,0.00,VWS V14.01,2013-04-30 22:49:00,
2013-04-30 18:50:00,55.1,23.4,30.28,SE,128,0.0,2.0,29,0.00,,CLR,0.00,VWS V14.01,2013-04-30 22:50:00,
2013-04-30 18:51:00,55.1,23.4,30.28,SE,127,1.0,2.0,29,0.00,,CLR,0.00,VWS V14.01,2013-04-30 22:51:00,
2013-04-30 18:52:00,55.0,24.2,30.28,East,91,1.0,2.0,30,0.00,,CLR,0.00,VWS V14.01,2013-04-30 22:52:00,
2013-04-30 18:53:00,54.9,24.1,30.28,East,96,1.0,2.0,30,0.00,,CLR,0.00,VWS V14.01,2013-04-30 22:53:00,
2013-04-30 18:54:00,54.9,24.1,30.28,East,96,1.0,2.0,30,0.00,,CLR,0.00,VWS V14.01,2013-04-30 22:54:00,
2013-04-30 18:55:00,54.8,24.0,30.28,East,98,0.0,2.0,30,0.00,,CLR,0.00,VWS V14.01,2013-04-30 22:55:00,
2013-04-30 18:56:00,54.8,24.0,30.28,East,97,0.0,1.0,30,0.00,,CLR,0.00,VWS V14.01,2013-04-30 22:56:00,
2013-04-30 18:57:00,54.7,23.9,30.28,East,98,0.0,1.0,30,0.00,,CLR,0.00,VWS V14.01,2013-04-30 22:57:00,
2013-04-30 18:58:00,63.4,23.0,30.25,ESE,117,4.0,11.0,21,0.00,,,0.00,weatherlink.com 1.10,2013-04-30 22:58:00,
2013-04-30 18:59:00,54.6,24.6,30.28,East,97,0.0,1.0,31,0.00,,CLR,0.00,VWS V14.01,2013-04-30 22:59:00,
2013-04-30 19:00:00,54.5,25.3,30.28,East,97,0.0,1.0,32,0.00,,CLR,0.00,VWS V14.01,2013-04-30 23:00:00,
2013-04-30 19:01:00,54.3,26.5,30.28,East,98,0.0,0.0,34,0.00,,CLR,0.00,VWS V14.01,2013-04-30 23:01:00,
2013-04-30 19:02:00,54.3,27.2,30.28,East,97,0.0,0.0,35,0.00,,CLR,0.00,VWS V14.01,2013-04-30 23:02:00,
2013-04-30 19:03:00,54.2,26.5,30.28,East,98,0.0,0.0,34,0.00,,CLR,0.00,VWS V14.01,2013-04-30 23:03:00,
2013-04-30 19:04:00,54.0,27.0,30.28,ESE,102,1.0,1.0,35,0.00,,CLR,0.00,VWS V14.01,2013-04-30 23:04:00,
2013-04-30 19:05:00,53.9,26.2,30.28,ESE,115,2.0,2.0,34,0.00,,CLR,0.00,VWS V14.01,2013-04-30 23:05:00,
2013-04-30 19:06:00,53.8,26.8,30.28,East,96,3.0,3.0,35,0.00,,CLR,0.00,VWS V14.01,2013-04-30 23:06:00,
2013-04-30 19:07:00,53.7,26.7,30.28,ESE,110,6.0,6.0,35,0.00,,CLR,0.00,VWS V14.01,2013-04-30 23:07:00,
2013-04-30 19:08:00,53.7,26.7,30.28,ESE,108,2.0,6.0,35,0.00,,CLR,0.00,VWS V14.01,2013-04-30 23:08:00,
2013-04-30 19:09:00,53.7,26.7,30.28,East,97,3.0,6.0,35,0.00,,CLR,0.00,VWS V14.01,2013-04-30 23:09:00,
2013-04-30 19:10:00,53.7,26.7,30.28,East,79,2.0,6.0,35,0.00,,CLR,0.00,VWS V14.01,2013-04-30 23:10:00,
2013-04-30 19:11:00,53.7,26.7,30.28,ESE,107,1.0,3.0,35,0.00,,CLR,0.00,VWS V14.01,2013-04-30 23:11:00,
2013-04-30 19:12:00,53.7,26.7,30.29,ESE,107,1.0,3.0,35,0.00,,CLR,0.00,VWS V14.01,2013-04-30 23:12:00,
2013-04-30 19:13:00,53.6,27.3,30.28,ESE,122,1.0,3.0,36,0.00,,CLR,0.00,VWS V14.01,2013-04-30 23:13:00,
2013-04-30 19:14:00,53.5,27.2,30.28,ESE,115,2.0,2.0,36,0.00,,CLR,0.00,VWS V14.01,2013-04-30 23:14:00,
2013-04-30 19:15:00,62.4,23.0,30.25,ESE,120,4.0,10.0,22,0.00,,,0.00,weatherlink.com 1.10,2013-04-30 23:15:00,
2013-04-30 19:16:00,53.4,27.1,30.29,ESE,110,1.0,2.0,36,0.00,,CLR,0.00,VWS V14.01,2013-04-30 23:16:00,
2013-04-30 19:17:00,53.4,27.1,30.29,ESE,108,1.0,2.0,36,0.00,,CLR,0.00,VWS V14.01,2013-04-30 23:17:00,
2013-04-30 19:18:00,53.3,27.7,30.29,ESE,119,0.0,1.0,37,0.00,,CLR,0.00,VWS V14.01,2013-04-30 23:18:00,
2013-04-30 19:19:00,53.3,27.7,30.28,SE,127,1.0,1.0,37,0.00,,CLR,0.00,VWS V14.01,2013-04-30 23:19:00,
2013-04-30 19:20:00,53.2,27.0,30.29,SE,124,0.0,1.0,36,0.00,,CLR,0.00,VWS V14.01,2013-04-30 23:20:00,
2013-04-30 19:21:00,53.1,27.5,30.28,SE,124,0.0,1.0,37,0.00,,CLR,0.00,VWS V14.01,2013-04-30 23:21:00,
2013-04-30 19:22:00,53.0,27.4,30.28,SE,124,0.0,1.0,37,0.00,,CLR,0.00,VWS V14.01,2013-04-30 23:22:00,
2013-04-30 19:23:00,53.0,27.4,30.28,ESE,123,1.0,1.0,37,0.00,,CLR,0.00,VWS V14.01,2013-04-30 23:23:00,
2013-04-30 19:24:00,52.9,27.4,30.28,SE,127,1.0,1.0,37,0.00,,CLR,0.00,VWS V14.01,2013-04-30 23:24:00,
2013-04-30 19:25:00,52.8,27.3,30.28,SE,125,0.0,1.0,37,0.00,,CLR,0.00,VWS V14.01,2013-04-30 23:25:00,
2013-04-30 19:26:00,52.8,27.3,30.28,SE,125,0.0,1.0,37,0.00,,CLR,0.00,VWS V14.01,2013-04-30 23:26:00,
2013-04-30 19:27:00,52.7,27.8,30.28,SE,126,0.0,1.0,38,0.00,,CLR,0.00,VWS V14.01,2013-04-30 23:27:00,
2013-04-30 19:28:00,52.7,27.2,30.29,SE,125,0.0,1.0,37,0.00,,CLR,0.00,VWS V14.01,2013-04-30 23:28:00,
2013-04-30 19:29:00,52.6,27.1,30.29,SE,125,0.0,1.0,37,0.00,,CLR,0.00,VWS V14.01,2013-04-30 23:29:00,
2013-04-30 19:30:00,52.6,27.1,30.29,SE,126,0.0,0.0,37,0.00,,CLR,0.00,VWS V14.01,2013-04-30 23:30:00,
2013-04-30 19:31:00,61.3,23.0,30.25,East,89,6.0,10.0,23,0.00,,,0.00,weatherlink.com 1.10,2013-04-30 23:31:00,
2013-04-30 19:32:00,52.5,27.0,30.29,SE,124,1.0,1.0,37,0.00,,CLR,0.00,VWS V14.01,2013-04-30 23:32:00,
2013-04-30 19:33:00,52.5,27.0,30.29,SE,124,1.0,1.0,37,0.00,,CLR,0.00,VWS V14.01,2013-04-30 23:33:00,
2013-04-30 19:34:00,52.5,27.0,30.29,SE,124,0.0,1.0,37,0.00,,CLR,0.00,VWS V14.01,2013-04-30 23:34:00,
2013-04-30 19:35:00,52.4,27.6,30.29,SE,128,1.0,1.0,38,0.00,,CLR,0.00,VWS V14.01,2013-04-30 23:35:00,
2013-04-30 19:36:00,52.4,27.6,30.29,SE,128,0.0,1.0,38,0.00,,CLR,0.00,VWS V14.01,2013-04-30 23:36:00,
2013-04-30 19:37:00,52.3,27.5,30.29,SE,128,1.0,1.0,38,0.00,,CLR,0.00,VWS V14.01,2013-04-30 23:37:00,
2013-04-30 19:38:00,52.3,27.5,30.29,SSE,153,2.0,2.0,38,0.00,,CLR,0.00,VWS V14.01,2013-04-30 23:38:00,
2013-04-30 19:39:00,52.2,27.4,30.29,SSE,152,2.0,2.0,38,0.00,,CLR,0.00,VWS V14.01,2013-04-30 23:39:00,
2013-04-30 19:40:00,52.2,27.4,30.29,SSE,157,1.0,2.0,38,0.00,,CLR,0.00,VWS V14.01,2013-04-30 23:40:00,
2013-04-30 19:41:00,52.1,27.3,30.29,SSE,158,1.0,2.0,38,0.00,,CLR,0.00,VWS V14.01,2013-04-30 23:41:00,
2013-04-30 19:42:00,52.1,27.3,30.29,SE,131,2.0,3.0,38,0.00,,CLR,0.00,VWS V14.01,2013-04-30 23:42:00,
2013-04-30 19:43:00,52.0,27.2,30.29,SE,129,2.0,3.0,38,0.00,,CLR,0.00,VWS V14.01,2013-04-30 23:43:00,
2013-04-30 19:44:00,52.0,27.2,30.29,SE,136,1.0,3.0,38,0.00,,CLR,0.00,VWS V14.01,2013-04-30 23:44:00,
2013-04-30 19:45:00,52.0,27.2,30.29,SE,136,1.0,3.0,38,0.00,,CLR,0.00,VWS V14.01,2013-04-30 23:45:00,
2013-04-30 19:46:00,52.0,27.2,30.29,SSE,166,1.0,2.0,38,0.00,,CLR,0.00,VWS V14.01,2013-04-30 23:46:00,
2013-04-30 19:47:00,52.0,27.2,30.29,SSE,166,0.0,2.0,38,0.00,,CLR,0.00,VWS V14.01,2013-04-30 23:47:00,
2013-04-30 19:48:00,59.8,24.0,30.26,ESE,119,3.0,6.0,25,0.00,,,0.00,weatherlink.com 1.10,2013-04-30 23:48:00,
2013-04-30 19:49:00,51.9,27.1,30.29,SSE,165,1.0,2.0,38,0.00,,CLR,0.00,VWS V14.01,2013-04-30 23:49:00,
2013-04-30 19:50:00,51.9,27.7,30.29,SSE,165,1.0,1.0,39,0.00,,CLR,0.00,VWS V14.01,2013-04-30 23:50:00,
2013-04-30 19:51:00,51.8,27.6,30.29,SSE,165,0.0,1.0,39,0.00,,CLR,0.00,VWS V14.01,2013-04-30 23:51:00,
2013-04-30 19:52:00,51.8,27.6,30.29,SSE,165,0.0,1.0,39,0.00,,CLR,0.00,VWS V14.01,2013-04-30 23:52:00,
2013-04-30 19:53:00,51.8,27.6,30.29,SSE,163,1.0,1.0,39,0.00,,CLR,0.00,VWS V14.01,2013-04-30 23:53:00,
2013-04-30 19:54:00,51.7,27.6,30.29,SE,141,0.0,1.0,39,0.00,,CLR,0.00,VWS V14.01,2013-04-30 23:54:00,
2013-04-30 19:55:00,51.7,27.6,30.29,SSE,155,1.0,1.0,39,0.00,,CLR,0.00,VWS V14.01,2013-04-30 23:55:00,
2013-04-30 19:56:00,51.7,27.6,30.29,SSE,148,0.0,1.0,39,0.00,,CLR,0.00,VWS V14.01,2013-04-30 23:56:00,
2013-04-30 19:57:00,51.6,28.1,30.29,SE,146,0.0,1.0,40,0.00,,CLR,0.00,VWS V14.01,2013-04-30 23:57:00,
2013-04-30 19:58:00,51.6,28.1,30.29,SSE,157,1.0,1.0,40,0.00,,CLR,0.00,VWS V14.01,2013-04-30 23:58:00,
2013-04-30 19:59:00,51.6,28.1,30.29,SSW,210,0.0,2.0,40,0.00,,CLR,0.00,VWS V14.01,2013-04-30 23:59:00,
2013-04-30 20:00:00,51.6,28.7,30.29,SSE,148,2.0,2.0,41,0.00,,CLR,0.00,VWS V14.01,2013-05-01 00:00:00,
2013-04-30 20:01:00,51.6,28.7,30.29,SE,141,1.0,2.0,41,0.00,,CLR,0.00,VWS V14.01,2013-05-01 00:01:00,
2013-04-30 20:02:00,51.6,28.7,30.29,SE,124,1.0,2.0,41,0.00,,CLR,0.00,VWS V14.01,2013-05-01 00:02:00,
2013-04-30 20:03:00,51.6,28.7,30.29,SE,140,1.0,2.0,41,0.00,,CLR,0.00,VWS V14.01,2013-05-01 00:03:00,
2013-04-30 20:04:00,51.6,28.7,30.29,ESE,120,3.0,3.0,41,0.00,,CLR,0.00,VWS V14.01,2013-05-01 00:04:00,
2013-04-30 20:05:00,58.5,24.0,30.26,SE,131,2.0,5.0,27,0.00,,,0.00,weatherlink.com 1.10,2013-05-01 00:05:00,
2013-04-30 20:06:00,51.6,29.3,30.29,SE,146,1.0,3.0,42,0.00,,CLR,0.00,VWS V14.01,2013-05-01 00:06:00,
2013-04-30 20:07:00,51.6,29.3,30.29,SE,130,1.0,3.0,42,0.00,,CLR,0.00,VWS V14.01,2013-05-01 00:07:00,
2013-04-30 20:08:00,51.6,29.3,30.29,SE,140,3.0,3.0,42,0.00,,CLR,0.00,VWS V14.01,2013-05-01 00:08:00,
2013-04-30 20:09:00,51.6,29.3,30.29,SE,132,1.0,3.0,42,0.00,,CLR,0.00,VWS V14.01,2013-05-01 00:09:00,
2013-04-30 20:10:00,51.5,29.2,30.29,SE,131,1.0,3.0,42,0.00,,CLR,0.00,VWS V14.01,2013-05-01 00:10:00,
2013-04-30 20:11:00,51.5,29.8,30.29,SSE,155,2.0,3.0,43,0.00,,CLR,0.00,VWS V14.01,2013-05-01 00:11:00,
2013-04-30 20:12:00,51.4,29.7,30.29,SSE,155,0.0,2.0,43,0.00,,CLR,0.00,VWS V14.01,2013-05-01 00:12:00,
2013-04-30 20:13:00,51.4,29.7,30.29,SSE,150,1.0,2.0,43,0.00,,CLR,0.00,VWS V14.01,2013-05-01 00:13:00,
2013-04-30 20:14:00,51.4,29.7,30.29,SSE,150,0.0,2.0,43,0.00,,CLR,0.00,VWS V14.01,2013-05-01 00:14:00,
2013-04-30 20:15:00,51.3,29.6,30.29,SSE,148,1.0,1.0,43,0.00,,CLR,0.00,VWS V14.01,2013-05-01 00:15:00,
2013-04-30 20:16:00,51.3,29.6,30.29,SSE,148,0.0,1.0,43,0.00,,CLR,0.00,VWS V14.01,2013-05-01 00:16:00,
2013-04-30 20:17:00,51.3,29.6,30.29,SSE,148,0.0,1.0,43,0.00,,CLR,0.00,VWS V14.01,2013-05-01 00:17:00,
2013-04-30 20:18:00,51.2,29.5,30.29,SSE,148,0.0,1.0,43,0.00,,CLR,0.00,VWS V14.01,2013-05-01 00:18:00,
2013-04-30 20:19:00,51.2,29.5,30.29,SE,124,1.0,1.0,43,0.00,,CLR,0.00,VWS V14.01,2013-05-01 00:19:00,
2013-04-30 20:20:00,57.4,23.0,30.27,ESE,114,3.0,6.0,26,0.00,,,0.00,weatherlink.com 1.10,2013-05-01 00:20:00,
2013-04-30 20:21:00,51.2,29.5,30.29,SE,125,0.0,1.0,43,0.00,,CLR,0.00,VWS V14.01,2013-05-01 00:21:00,
2013-04-30 20:22:00,51.1,30.0,30.29,SE,125,0.0,1.0,44,0.00,,CLR,0.00,VWS V14.01,2013-05-01 00:22:00,
2013-04-30 20:23:00,51.1,30.0,30.29,SE,125,0.0,0.0,44,0.00,,CLR,0.00,VWS V14.01,2013-05-01 00:23:00,
2013-04-30 20:24:00,51.0,29.9,30.29,SE,125,0.0,0.0,44,0.00,,CLR,0.00,VWS V14.01,2013-05-01 00:24:00,
2013-04-30 20:25:00,51.0,29.9,30.29,SE,125,0.0,0.0,44,0.00,,CLR,0.00,VWS V14.01,2013-05-01 00:25:00,
2013-04-30 20:26:00,50.9,29.8,30.29,SE,125,0.0,0.0,44,0.00,,CLR,0.00,VWS V14.01,2013-05-01 00:26:00,
2013-04-30 20:27:00,50.8,29.7,30.29,SE,125,0.0,0.0,44,0.00,,CLR,0.00,VWS V14.01,2013-05-01 00:27:00,
2013-04-30 20:28:00,50.7,30.1,30.29,SE,125,0.0,0.0,45,0.00,,CLR,0.00,VWS V14.01,2013-05-01 00:28:00,
2013-04-30 20:29:00,50.6,30.1,30.29,SE,125,0.0,0.0,45,0.00,,CLR,0.00,VWS V14.01,2013-05-01 00:29:00,
2013-04-30 20:30:00,50.4,30.4,30.29,SE,125,0.0,0.0,46,0.00,,CLR,0.00,VWS V14.01,2013-05-01 00:30:00,
2013-04-30 20:31:00,50.4,29.9,30.29,SE,125,0.0,0.0,45,0.00,,CLR,0.00,VWS V14.01,2013-05-01 00:31:00,
2013-04-30 20:32:00,50.3,29.8,30.29,SE,125,0.0,0.0,45,0.00,,CLR,0.00,VWS V14.01,2013-05-01 00:32:00,
2013-04-30 20:33:00,50.2,29.7,30.29,SE,125,0.0,0.0,45,0.00,,CLR,0.00,VWS V14.01,2013-05-01 00:33:00,
2013-04-30 20:34:00,50.1,29.6,30.29,SE,125,0.0,0.0,45,0.00,,CLR,0.00,VWS V14.01,2013-05-01 00:34:00,
2013-04-30 20:35:00,50.0,29.5,30.29,SE,125,0.0,0.0,45,0.00,,CLR,0.00,VWS V14.01,2013-05-01 00:35:00,
2013-04-30 20:36:00,49.9,29.4,30.29,SE,125,0.0,0.0,45,0.00,,CLR,0.00,VWS V14.01,2013-05-01 00:36:00,
2013-04-30 20:37:00,49.7,29.8,30.29,SE,125,0.0,0.0,46,0.00,,CLR,0.00,VWS V14.01,2013-05-01 00:37:00,
2013-04-30 20:38:00,56.4,23.0,30.27,ESE,121,3.0,3.0,27,0.00,,,0.00,weatherlink.com 1.10,2013-05-01 00:38:00,
2013-04-30 20:39:00,49.4,30.0,30.29,SE,125,0.0,0.0,47,0.00,,CLR,0.00,VWS V14.01,2013-05-01 00:39:00,
2013-04-30 20:40:00,49.3,29.9,30.29,SE,125,0.0,0.0,47,0.00,,CLR,0.00,VWS V14.01,2013-05-01 00:40:00,
2013-04-30 20:41:00,49.1,30.3,30.29,SE,125,0.0,0.0,48,0.00,,CLR,0.00,VWS V14.01,2013-05-01 00:41:00,
2013-04-30 20:42:00,48.9,30.6,30.29,SE,125,0.0,0.0,49,0.00,,CLR,0.00,VWS V14.01,2013-05-01 00:42:00,
2013-04-30 20:43:00,48.8,32.0,30.29,SE,125,0.0,0.0,52,0.00,,CLR,0.00,VWS V14.01,2013-05-01 00:43:00,
2013-04-30 20:44:00,48.7,32.3,30.29,SE,126,0.0,0.0,53,0.00,,CLR,0.00,VWS V14.01,2013-05-01 00:44:00,
2013-04-30 20:45:00,48.7,31.9,30.29,SE,125,0.0,0.0,52,0.00,,CLR,0.00,VWS V14.01,2013-05-01 00:45:00,
2013-04-30 20:46:00,48.5,31.2,30.29,SE,126,0.0,0.0,51,0.00,,CLR,0.00,VWS V14.01,2013-05-01 00:46:00,
2013-04-30 20:47:00,48.5,32.2,30.29,SE,125,0.0,0.0,53,0.00,,CLR,0.00,VWS V14.01,2013-05-01 00:47:00,
2013-04-30 20:48:00,48.4,32.5,30.29,SE,125,0.0,0.0,54,0.00,,CLR,0.00,VWS V14.01,2013-05-01 00:48:00,
2013-04-30 20:49:00,48.3,32.9,30.29,SE,125,0.0,0.0,55,0.00,,CLR,0.00,VWS V14.01,2013-05-01 00:49:00,
2013-04-30 20:50:00,48.2,33.3,30.30,SE,125,0.0,0.0,56,0.00,,CLR,0.00,VWS V14.01,2013-05-01 00:50:00,
2013-04-30 20:51:00,48.1,33.2,30.30,SE,125,0.0,0.0,56,0.00,,CLR,0.00,VWS V14.01,2013-05-01 00:51:00,
2013-04-30 20:52:00,48.0,33.9,30.30,SE,126,0.0,0.0,58,0.00,,CLR,0.00,VWS V14.01,2013-05-01 00:52:00,
2013-04-30 20:53:00,48.0,34.4,30.30,SE,125,0.0,0.0,59,0.00,,CLR,0.00,VWS V14.01,2013-05-01 00:53:00,
2013-04-30 20:54:00,55.6,23.0,30.28,SE,129,0.0,3.0,28,0.00,,,0.00,weatherlink.com 1.10,2013-05-01 00:54:00,
2013-04-30 20:55:00,47.8,34.2,30.30,SE,125,0.0,0.0,59,0.00,,CLR,0.00,VWS V14.01,2013-05-01 00:55:00,
2013-04-30 20:56:00,47.7,33.7,30.30,SE,125,0.0,0.0,58,0.00,,CLR,0.00,VWS V14.01,2013-05-01 00:56:00,
2013-04-30 20:57:00,47.6,33.6,30.29,SE,125,0.0,0.0,58,0.00,,CLR,0.00,VWS V14.01,2013-05-01 00:57:00,
2013-04-30 20:58:00,47.5,33.9,30.30,SE,125,0.0,0.0,59,0.00,,CLR,0.00,VWS V14.01,2013-05-01 00:58:00,
2013-04-30 20:59:00,47.4,33.4,30.30,SE,125,0.0,0.0,58,0.00,,CLR,0.00,VWS V14.01,2013-05-01 00:59:00,
2013-04-30 21:00:00,47.3,33.3,30.30,SE,126,0.0,0.0,58,0.00,,CLR,0.00,VWS V14.01,2013-05-01 01:00:00,
2013-04-30 21:01:00,47.3,32.8,30.30,SE,125,0.0,0.0,57,0.00,,CLR,0.00,VWS V14.01,2013-05-01 01:01:00,
2013-04-30 21:02:00,47.2,31.9,30.30,SE,125,0.0,0.0,55,0.00,,CLR,0.00,VWS V14.01,2013-05-01 01:02:00,
2013-04-30 21:03:00,47.1,31.3,30.30,SE,125,0.0,0.0,54,0.00,,CLR,0.00,VWS V14.01,2013-05-01 01:03:00,
2013-04-30 21:04:00,47.1,30.9,30.30,SE,125,0.0,0.0,53,0.00,,CLR,0.00,VWS V14.01,2013-05-01 01:04:00,
2013-04-30 21:05:00,47.1,30.9,30.30,SE,127,0.0,0.0,53,0.00,,CLR,0.00,VWS V14.01,2013-05-01 01:05:00,
2013-04-30 21:06:00,47.1,30.9,30.30,SE,127,0.0,0.0,53,0.00,,CLR,0.00,VWS V14.01,2013-05-01 01:06:00,
2013-04-30 21:07:00,47.1,30.4,30.30,SE,127,0.0,0.0,52,0.00,,CLR,0.00,VWS V14.01,2013-05-01 01:07:00,
2013-04-30 21:08:00,47.1,30.4,30.30,SE,127,0.0,0.0,52,0.00,,CLR,0.00,VWS V14.01,2013-05-01 01:08:00,
2013-04-30 21:09:00,47.2,30.5,30.30,SE,127,0.0,0.0,52,0.00,,CLR,0.00,VWS V14.01,2013-05-01 01:09:00,
2013-04-30 21:10:00,54.6,24.0,30.28,East,97,0.0,2.0,31,0.00,,,0.00,weatherlink.com 1.10,2013-05-01 01:10:00,
2013-04-30 21:11:00,47.3,30.6,30.30,SE,127,0.0,0.0,52,0.00,,CLR,0.00,VWS V14.01,2013-05-01 01:11:00,
2013-04-30 21:12:00,47.3,30.6,30.30,SE,127,0.0,0.0,52,0.00,,CLR,0.00,VWS V14.01,2013-05-01 01:12:00,
2013-04-30 21:13:00,47.5,30.8,30.30,SE,127,0.0,0.0,52,0.00,,CLR,0.00,VWS V14.01,2013-05-01 01:13:00,
2013-04-30 21:14:00,47.5,30.8,30.30,SE,127,0.0,0.0,52,0.00,,CLR,0.00,VWS V14.01,2013-05-01 01:14:00,
2013-04-30 21:15:00,47.6,30.9,30.30,SE,127,0.0,0.0,52,0.00,,CLR,0.00,VWS V14.01,2013-05-01 01:15:00,
2013-04-30 21:16:00,47.7,31.0,30.30,SE,127,0.0,0.0,52,0.00,,CLR,0.00,VWS V14.01,2013-05-01 01:16:00,
2013-04-30 21:17:00,47.8,31.0,30.30,SE,127,0.0,0.0,52,0.00,,CLR,0.00,VWS V14.01,2013-05-01 01:17:00,
2013-04-30 21:18:00,47.8,31.0,30.30,SE,127,0.0,0.0,52,0.00,,CLR,0.00,VWS V14.01,2013-05-01 01:18:00,
2013-04-30 21:19:00,47.8,31.0,30.30,SE,127,0.0,0.0,52,0.00,,CLR,0.00,VWS V14.01,2013-05-01 01:19:00,
2013-04-30 21:20:00,47.8,31.0,30.30,SE,127,0.0,0.0,52,0.00,,CLR,0.00,VWS V14.01,2013-05-01 01:20:00,
2013-04-30 21:21:00,47.8,31.0,30.30,SE,127,0.0,0.0,52,0.00,,CLR,0.00,VWS V14.01,2013-05-01 01:21:00,
2013-04-30 21:22:00,47.8,31.0,30.30,SE,127,0.0,0.0,52,0.00,,CLR,0.00,VWS V14.01,2013-05-01 01:22:00,
2013-04-30 21:23:00,47.8,31.5,30.30,SE,127,0.0,0.0,53,0.00,,CLR,0.00,VWS V14.01,2013-05-01 01:23:00,
2013-04-30 21:24:00,47.8,31.5,30.30,SE,127,0.0,0.0,53,0.00,,CLR,0.00,VWS V14.01,2013-05-01 01:24:00,
2013-04-30 21:25:00,47.8,31.5,30.30,SE,127,0.0,0.0,53,0.00,,CLR,0.00,VWS V14.01,2013-05-01 01:25:00,
2013-04-30 21:26:00,47.8,31.5,30.30,SE,127,0.0,0.0,53,0.00,,CLR,0.00,VWS V14.01,2013-05-01 01:26:00,
2013-04-30 21:27:00,53.5,27.0,30.29,ESE,110,1.0,6.0,36,0.00,,,0.00,weatherlink.com 1.10,2013-05-01 01:27:00,
2013-04-30 21:28:00,47.7,31.4,30.31,SE,127,0.0,0.0,53,0.00,,CLR,0.00,VWS V14.01,2013-05-01 01:28:00,
2013-04-30 21:29:00,47.6,31.3,30.31,SE,127,0.0,0.0,53,0.00,,CLR,0.00,VWS V14.01,2013-05-01 01:29:00,
2013-04-30 21:30:00,47.5,31.2,30.31,SE,127,0.0,0.0,53,0.00,,CLR,0.00,VWS V14.01,2013-05-01 01:30:00,
2013-04-30 21:31:00,47.5,31.2,30.31,SE,127,0.0,0.0,53,0.00,,CLR,0.00,VWS V14.01,2013-05-01 01:31:00,
2013-04-30 21:32:00,47.4,31.1,30.31,SE,127,0.0,0.0,53,0.00,,CLR,0.00,VWS V14.01,2013-05-01 01:32:00,
2013-04-30 21:33:00,47.2,31.4,30.31,SE,127,0.0,0.0,54,0.00,,CLR,0.00,VWS V14.01,2013-05-01 01:33:00,
2013-04-30 21:34:00,47.2,31.4,30.31,SE,127,0.0,0.0,54,0.00,,CLR,0.00,VWS V14.01,2013-05-01 01:34:00,
2013-04-30 21:35:00,47.1,31.3,30.31,SE,127,0.0,0.0,54,0.00,,CLR,0.00,VWS V14.01,2013-05-01 01:35:00,
2013-04-30 21:36:00,46.9,31.1,30.31,SE,127,0.0,0.0,54,0.00,,CLR,0.00,VWS V14.01,2013-05-01 01:36:00,
2013-04-30 21:37:00,46.8,31.5,30.31,SE,127,0.0,0.0,55,0.00,,CLR,0.00,VWS V14.01,2013-05-01 01:37:00,
2013-04-30 21:38:00,46.6,31.3,30.31,SE,127,0.0,0.0,55,0.00,,CLR,0.00,VWS V14.01,2013-05-01 01:38:00,
2013-04-30 21:39:00,46.5,31.7,30.31,SE,127,0.0,0.0,56,0.00,,CLR,0.00,VWS V14.01,2013-05-01 01:39:00,
2013-04-30 21:40:00,46.3,31.5,30.31,SE,127,0.0,0.0,56,0.00,,CLR,0.00,VWS V14.01,2013-05-01 01:40:00,
2013-04-30 21:41:00,46.1,31.3,30.31,SE,127,0.0,0.0,56,0.00,,CLR,0.00,VWS V14.01,2013-05-01 01:41:00,
2013-04-30 21:42:00,46.0,31.2,30.31,SE,127,0.0,0.0,56,0.00,,CLR,0.00,VWS V14.01,2013-05-01 01:42:00,
2013-04-30 21:43:00,46.0,31.6,30.31,SE,127,0.0,0.0,57,0.00,,CLR,0.00,VWS V14.01,2013-05-01 01:43:00,
2013-04-30 21:44:00,52.5,27.0,30.29,SE,124,1.0,2.0,37,0.00,,,0.00,weatherlink.com 1.10,2013-05-01 01:44:00,
2013-04-30 21:45:00,45.9,31.5,30.31,SE,127,0.0,0.0,57,0.00,,CLR,0.00,VWS V14.01,2013-05-01 01:45:00,
2013-04-30 21:46:00,45.8,31.5,30.31,SE,127,0.0,0.0,57,0.00,,CLR,0.00,VWS V14.01,2013-05-01 01:46:00,
2013-04-30 21:47:00,45.8,31.9,30.31,SE,127,0.0,0.0,58,0.00,,CLR,0.00,VWS V14.01,2013-05-01 01:47:00,
2013-04-30 21:48:00,45.7,31.8,30.31,SE,127,0.0,0.0,58,0.00,,CLR,0.00,VWS V14.01,2013-05-01 01:48:00,
2013-04-30 21:49:00,45.6,31.7,30.31,SE,127,0.0,0.0,58,0.00,,CLR,0.00,VWS V14.01,2013-05-01 01:49:00,
2013-04-30 21:50:00,45.5,31.6,30.31,SE,127,0.0,0.0,58,0.00,,CLR,0.00,VWS V14.01,2013-05-01 01:50:00,
2013-04-30 21:51:00,45.5,32.0,30.31,SE,127,0.0,0.0,59,0.00,,CLR,0.00,VWS V14.01,2013-05-01 01:51:00,
2013-04-30 21:52:00,45.4,31.9,30.31,SE,127,0.0,0.0,59,0.00,,CLR,0.00,VWS V14.01,2013-05-01 01:52:00,
2013-04-30 21:53:00,45.4,31.9,30.31,SE,127,0.0,0.0,59,0.00,,CLR,0.00,VWS V14.01,2013-05-01 01:53:00,
2013-04-30 21:54:00,45.4,32.3,30.31,SE,127,0.0,0.0,60,0.00,,CLR,0.00,VWS V14.01,2013-05-01 01:54:00,
2013-04-30 21:55:00,45.4,32.3,30.31,SE,127,0.0,0.0,60,0.00,,CLR,0.00,VWS V14.01,2013-05-01 01:55:00,
2013-04-30 21:56:00,45.5,32.4,30.31,SE,127,0.0,0.0,60,0.00,,CLR,0.00,VWS V14.01,2013-05-01 01:56:00,
2013-04-30 21:57:00,45.4,32.3,30.31,SE,127,0.0,0.0,60,0.00,,CLR,0.00,VWS V14.01,2013-05-01 01:57:00,
2013-04-30 21:58:00,45.4,32.3,30.31,SE,127,0.0,0.0,60,0.00,,CLR,0.00,VWS V14.01,2013-05-01 01:58:00,
2013-04-30 21:59:00,45.4,32.3,30.31,SE,127,0.0,0.0,60,0.00,,CLR,0.00,VWS V14.01,2013-05-01 01:59:00,
2013-04-30 22:00:00,51.9,27.0,30.29,SSE,165,1.0,3.0,38,0.00,,,0.00,weatherlink.com 1.10,2013-05-01 02:00:00,
2013-04-30 22:01:00,45.2,31.7,30.31,SE,127,0.0,0.0,59,0.00,,CLR,0.00,VWS V14.01,2013-05-01 02:01:00,
2013-04-30 22:02:00,45.1,31.6,30.31,SE,127,0.0,0.0,59,0.00,,CLR,0.00,VWS V14.01,2013-05-01 02:02:00,
2013-04-30 22:03:00,45.1,32.1,30.31,SE,127,0.0,0.0,60,0.00,,CLR,0.00,VWS V14.01,2013-05-01 02:03:00,
2013-04-30 22:04:00,44.9,31.9,30.31,SE,127,0.0,0.0,60,0.00,,CLR,0.00,VWS V14.01,2013-05-01 02:04:00,
2013-04-30 22:05:00,44.8,32.2,30.31,SE,127,0.0,0.0,61,0.00,,CLR,0.00,VWS V14.01,2013-05-01 02:05:00,
2013-04-30 22:06:00,44.7,32.1,30.31,SE,127,0.0,0.0,61,0.00,,CLR,0.00,VWS V14.01,2013-05-01 02:06:00,
2013-04-30 22:07:00,44.7,32.1,30.31,SE,127,0.0,0.0,61,0.00,,CLR,0.00,VWS V14.01,2013-05-01 02:07:00,
2013-04-30 22:08:00,44.6,32.4,30.31,SE,127,0.0,0.0,62,0.00,,CLR,0.00,VWS V14.01,2013-05-01 02:08:00,
2013-04-30 22:09:00,44.6,32.8,30.31,SE,127,0.0,0.0,63,0.00,,CLR,0.00,VWS V14.01,2013-05-01 02:09:00,
2013-04-30 22:10:00,44.6,33.6,30.31,SE,127,0.0,0.0,65,0.00,,CLR,0.00,VWS V14.01,2013-05-01 02:10:00,
2013-04-30 22:11:00,44.7,34.0,30.31,SE,127,0.0,0.0,66,0.00,,CLR,0.00,VWS V14.01,2013-05-01 02:11:00,
2013-04-30 22:12:00,44.7,34.4,30.31,SE,127,0.0,0.0,67,0.00,,CLR,0.00,VWS V14.01,2013-05-01 02:12:00,
2013-04-30 22:13:00,44.7,34.4,30.31,SE,127,0.0,0.0,67,0.00,,CLR,0.00,VWS V14.01,2013-05-01 02:13:00,
2013-04-30 22:14:00,44.7,34.4,30.31,SE,127,0.0,0.0,67,0.00,,CLR,0.00,VWS V14.01,2013-05-01 02:14:00,
2013-04-30 22:15:00,44.8,34.5,30.31,SE,127,0.0,0.0,67,0.00,,CLR,0.00,VWS V14.01,2013-05-01 02:15:00,
2013-04-30 22:16:00,51.6,28.0,30.29,SE,139,1.0,3.0,41,0.00,,,0.00,weatherlink.com 1.10,2013-05-01 02:16:00,
2013-04-30 22:17:00,44.8,34.2,30.31,SE,127,0.0,0.0,66,0.00,,CLR,0.00,VWS V14.01,2013-05-01 02:17:00,
2013-04-30 22:18:00,44.8,34.2,30.31,SE,127,0.0,0.0,66,0.00,,CLR,0.00,VWS V14.01,2013-05-01 02:18:00,
2013-04-30 22:19:00,44.9,34.2,30.31,SE,127,0.0,0.0,66,0.00,,CLR,0.00,VWS V14.01,2013-05-01 02:19:00,
2013-04-30 22:20:00,44.9,33.9,30.31,SE,127,0.0,0.0,65,0.00,,CLR,0.00,VWS V14.01,2013-05-01 02:20:00,
2013-04-30 22:21:00,44.9,33.9,30.31,SE,127,0.0,0.0,65,0.00,,CLR,0.00,VWS V14.01,2013-05-01 02:21:00,
2013-04-30 22:22:00,44.8,33.8,30.31,SE,127,0.0,0.0,65,0.00,,CLR,0.00,VWS V14.01,2013-05-01 02:22:00,
2013-04-30 22:23:00,44.8,33.4,30.31,SE,127,0.0,0.0,64,0.00,,CLR,0.00,VWS V14.01,2013-05-01 02:23:00,
2013-04-30 22:24:00,44.8,33.4,30.31,SE,127,0.0,0.0,64,0.00,,CLR,0.00,VWS V14.01,2013-05-01 02:24:00,
2013-04-30 22:25:00,44.7,33.3,30.31,SE,127,0.0,0.0,64,0.00,,CLR,0.00,VWS V14.01,2013-05-01 02:25:00,
2013-04-30 22:26:00,44.7,33.3,30.31,SE,127,0.0,0.0,64,0.00,,CLR,0.00,VWS V14.01,2013-05-01 02:26:00,
2013-04-30 22:27:00,44.6,33.2,30.31,SE,127,0.0,0.0,64,0.00,,CLR,0.00,VWS V14.01,2013-05-01 02:27:00,
2013-04-30 22:28:00,44.6,33.2,30.31,SE,127,0.0,0.0,64,0.00,,CLR,0.00,VWS V14.01,2013-05-01 02:28:00,
2013-04-30 22:29:00,44.5,33.1,30.31,SE,127,0.0,0.0,64,0.00,,CLR,0.00,VWS V14.01,2013-05-01 02:29:00,
2013-04-30 22:30:00,44.4,33.0,30.31,SE,127,0.0,0.0,64,0.00,,CLR,0.00,VWS V14.01,2013-05-01 02:30:00,
2013-04-30 22:31:00,44.4,33.0,30.31,SE,127,0.0,0.0,64,0.00,,CLR,0.00,VWS V14.01,2013-05-01 02:31:00,
2013-04-30 22:32:00,51.2,29.0,30.29,SE,124,0.0,2.0,43,0.00,,,0.00,weatherlink.com 1.10,2013-05-01 02:32:00,
2013-04-30 22:33:00,44.2,33.2,30.31,SE,127,0.0,0.0,65,0.00,,CLR,0.00,VWS V14.01,2013-05-01 02:33:00,
2013-04-30 22:34:00,44.1,33.1,30.31,SE,127,0.0,0.0,65,0.00,,CLR,0.00,VWS V14.01,2013-05-01 02:34:00,
2013-04-30 22:35:00,44.0,33.4,30.31,SE,127,0.0,0.0,66,0.00,,CLR,0.00,VWS V14.01,2013-05-01 02:35:00,
2013-04-30 22:36:00,43.9,33.7,30.31,SE,127,0.0,0.0,67,0.00,,CLR,0.00,VWS V14.01,2013-05-01 02:36:00,
2013-04-30 22:37:00,43.9,34.0,30.31,SE,127,0.0,0.0,68,0.00,,CLR,0.00,VWS V14.01,2013-05-01 02:37:00,
2013-04-30 22:38:00,43.9,34.8,30.31,SE,127,0.0,0.0,70,0.00,,CLR,0.00,VWS V14.01,2013-05-01 02:38:00,
2013-04-30 22:39:00,43.8,34.7,30.31,SE,127,0.0,0.0,70,0.00,,CLR,0.00,VWS V14.01,2013-05-01 02:39:00,
2013-04-30 22:40:00,43.8,35.0,30.31,SE,127,0.0,0.0,71,0.00,,CLR,0.00,VWS V14.01,2013-05-01 02:40:00,
2013-04-30 22:41:00,43.9,35.5,30.31,SE,127,0.0,0.0,72,0.00,,CLR,0.00,VWS V14.01,2013-05-01 02:41:00,
2013-04-30 22:42:00,43.8,35.7,30.31,SE,127,0.0,0.0,73,0.00,,CLR,0.00,VWS V14.01,2013-05-01 02:42:00,
2013-04-30 22:43:00,43.8,35.0,30.31,SE,127,0.0,0.0,71,0.00,,CLR,0.00,VWS V14.01,2013-05-01 02:43:00,
2013-04-30 22:44:00,43.8,35.0,30.31,SE,127,0.0,0.0,71,0.00,,CLR,0.00,VWS V14.01,2013-05-01 02:44:00,
2013-04-30 22:45:00,43.7,34.9,30.31,SE,127,0.0,0.0,71,0.00,,CLR,0.00,VWS V14.01,2013-05-01 02:45:00,
2013-04-30 22:46:00,43.7,34.9,30.31,SE,127,0.0,0.0,71,0.00,,CLR,0.00,VWS V14.01,2013-05-01 02:46:00,
2013-04-30 22:47:00,43.7,34.9,30.31,SE,127,0.0,0.0,71,0.00,,CLR,0.00,VWS V14.01,2013-05-01 02:47:00,
2013-04-30 22:48:00,43.6,34.5,30.31,SE,127,0.0,0.0,70,0.00,,CLR,0.00,VWS V14.01,2013-05-01 02:48:00,
2013-04-30 22:49:00,49.6,29.0,30.29,SE,125,0.0,0.0,46,0.00,,,0.00,weatherlink.com 1.10,2013-05-01 02:49:00,
2013-04-30 22:50:00,43.6,34.5,30.31,SE,127,0.0,0.0,70,0.00,,CLR,0.00,VWS V14.01,2013-05-01 02:50:00,
2013-04-30 22:51:00,43.6,34.5,30.31,SE,127,0.0,0.0,70,0.00,,CLR,0.00,VWS V14.01,2013-05-01 02:51:00,
2013-04-30 22:52:00,43.6,34.5,30.31,SE,127,0.0,0.0,70,0.00,,CLR,0.00,VWS V14.01,2013-05-01 02:52:00,
2013-04-30 22:53:00,43.6,34.5,30.31,SE,127,0.0,0.0,70,0.00,,CLR,0.00,VWS V14.01,2013-05-01 02:53:00,
2013-04-30 22:54:00,43.6,34.5,30.31,SE,127,0.0,0.0,70,0.00,,CLR,0.00,VWS V14.01,2013-05-01 02:54:00,
2013-04-30 22:55:00,43.6,34.1,30.31,SE,127,0.0,0.0,69,0.00,,CLR,0.00,VWS V14.01,2013-05-01 02:55:00,
2013-04-30 22:56:00,43.6,34.1,30.31,SE,127,0.0,0.0,69,0.00,,CLR,0.00,VWS V14.01,2013-05-01 02:56:00,
2013-04-30 22:57:00,43.5,34.0,30.32,SE,127,0.0,0.0,69,0.00,,CLR,0.00,VWS V14.01,2013-05-01 02:57:00,
2013-04-30 22:58:00,43.5,34.0,30.31,SE,127,0.0,0.0,69,0.00,,CLR,0.00,VWS V14.01,2013-05-01 02:58:00,
2013-04-30 22:59:00,43.5,34.0,30.32,SE,127,0.0,0.0,69,0.00,,CLR,0.00,VWS V14.01,2013-05-01 02:59:00,
2013-04-30 23:00:00,43.4,33.9,30.31,SE,127,0.0,0.0,69,0.00,,CLR,0.00,VWS V14.01,2013-05-01 03:00:00,
2013-04-30 23:01:00,43.3,33.8,30.31,SE,127,0.0,0.0,69,0.00,,CLR,0.00,VWS V14.01,2013-05-01 03:01:00,
2013-04-30 23:02:00,43.2,33.7,30.31,SE,127,0.0,0.0,69,0.00,,CLR,0.00,VWS V14.01,2013-05-01 03:02:00,
2013-04-30 23:03:00,43.2,33.7,30.31,SE,127,0.0,0.0,69,0.00,,CLR,0.00,VWS V14.01,2013-05-01 03:03:00,
2013-04-30 23:04:00,43.1,33.6,30.31,SE,127,0.0,0.0,69,0.00,,CLR,0.00,VWS V14.01,2013-05-01 03:04:00,
2013-04-30 23:05:00,43.0,33.5,30.31,SE,127,0.0,0.0,69,0.00,,CLR,0.00,VWS V14.01,2013-05-01 03:05:00,
2013-04-30 23:06:00,47.9,34.0,30.30,SE,125,0.0,0.0,59,0.00,,,0.00,weatherlink.com 1.10,2013-05-01 03:06:00,
2013-04-30 23:07:00,42.9,33.8,30.31,SE,127,0.0,0.0,70,0.00,,CLR,0.00,VWS V14.01,2013-05-01 03:07:00,
2013-04-30 23:08:00,42.9,34.2,30.31,SE,127,0.0,0.0,71,0.00,,CLR,0.00,VWS V14.01,2013-05-01 03:08:00,
2013-04-30 23:09:00,43.0,34.2,30.31,SE,127,0.0,0.0,71,0.00,,CLR,0.00,VWS V14.01,2013-05-01 03:09:00,
2013-04-30 23:10:00,43.2,34.5,30.31,SE,127,0.0,0.0,71,0.00,,CLR,0.00,VWS V14.01,2013-05-01 03:10:00,
2013-04-30 23:11:00,43.3,34.5,30.31,SE,127,0.0,0.0,71,0.00,,CLR,0.00,VWS V14.01,2013-05-01 03:11:00,
2013-04-30 23:12:00,43.4,34.3,30.31,SE,127,0.0,0.0,70,0.00,,CLR,0.00,VWS V14.01,2013-05-01 03:12:00,
2013-04-30 23:13:00,43.5,34.4,30.31,SE,127,0.0,0.0,70,0.00,,CLR,0.00,VWS V14.01,2013-05-01 03:13:00,
2013-04-30 23:14:00,43.6,34.5,30.31,SE,127,0.0,0.0,70,0.00,,CLR,0.00,VWS V14.01,2013-05-01 03:14:00,
2013-04-30 23:15:00,43.6,34.1,30.31,SE,127,0.0,0.0,69,0.00,,CLR,0.00,VWS V14.01,2013-05-01 03:15:00,
2013-04-30 23:16:00,43.6,34.1,30.31,SE,127,0.0,0.0,69,0.00,,CLR,0.00,VWS V14.01,2013-05-01 03:16:00,
2013-04-30 23:17:00,43.5,34.0,30.31,SE,127,0.0,0.0,69,0.00,,CLR,0.00,VWS V14.01,2013-05-01 03:17:00,
2013-04-30 23:18:00,43.5,34.0,30.31,SE,127,0.0,0.0,69,0.00,,CLR,0.00,VWS V14.01,2013-05-01 03:18:00,
2013-04-30 23:19:00,43.4,33.9,30.31,SE,127,0.0,0.0,69,0.00,,CLR,0.00,VWS V14.01,2013-05-01 03:19:00,
2013-04-30 23:20:00,43.3,34.2,30.32,SE,127,0.0,0.0,70,0.00,,CLR,0.00,VWS V14.01,2013-05-01 03:20:00,
2013-04-30 23:21:00,43.3,34.2,30.31,SE,127,0.0,0.0,70,0.00,,CLR,0.00,VWS V14.01,2013-05-01 03:21:00,
2013-04-30 23:22:00,47.2,30.0,30.30,SE,127,0.0,0.0,52,0.00,,,0.00,weatherlink.com 1.10,2013-05-01 03:22:00,
2013-04-30 23:23:00,43.4,34.3,30.32,SE,127,0.0,0.0,70,0.00,,CLR,0.00,VWS V14.01,2013-05-01 03:23:00,
2013-04-30 23:24:00,43.4,34.3,30.32,SE,127,0.0,0.0,70,0.00,,CLR,0.00,VWS V14.01,2013-05-01 03:24:00,
2013-04-30 23:25:00,43.4,34.3,30.32,SE,127,0.0,0.0,70,0.00,,CLR,0.00,VWS V14.01,2013-05-01 03:25:00,
2013-04-30 23:26:00,43.3,34.2,30.32,SE,127,0.0,0.0,70,0.00,,CLR,0.00,VWS V14.01,2013-05-01 03:26:00,
2013-04-30 23:27:00,43.3,33.8,30.32,SE,127,0.0,0.0,69,0.00,,CLR,0.00,VWS V14.01,2013-05-01 03:27:00,
2013-04-30 23:28:00,43.2,33.7,30.32,SE,127,0.0,0.0,69,0.00,,CLR,0.00,VWS V14.01,2013-05-01 03:28:00,
2013-04-30 23:29:00,43.1,34.0,30.32,SE,127,0.0,0.0,70,0.00,,CLR,0.00,VWS V14.01,2013-05-01 03:29:00,
2013-04-30 23:30:00,43.0,33.9,30.32,SE,127,0.0,0.0,70,0.00,,CLR,0.00,VWS V14.01,2013-05-01 03:30:00,
2013-04-30 23:31:00,43.0,33.9,30.32,SE,127,0.0,0.0,70,0.00,,CLR,0.00,VWS V14.01,2013-05-01 03:31:00,
2013-04-30 23:32:00,42.9,34.5,30.32,SE,127,0.0,0.0,72,0.00,,CLR,0.00,VWS V14.01,2013-05-01 03:32:00,
2013-04-30 23:33:00,42.9,34.8,30.32,SE,127,0.0,0.0,73,0.00,,CLR,0.00,VWS V14.01,2013-05-01 03:33:00,
2013-04-30 23:34:00,42.9,34.8,30.32,SE,127,0.0,0.0,73,0.00,,CLR,0.00,VWS V14.01,2013-05-01 03:34:00,
2013-04-30 23:35:00,42.9,35.2,30.32,SE,127,0.0,0.0,74,0.00,,CLR,0.00,VWS V14.01,2013-05-01 03:35:00,
2013-04-30 23:36:00,42.8,35.1,30.32,SE,127,0.0,0.0,74,0.00,,CLR,0.00,VWS V14.01,2013-05-01 03:36:00,
2013-04-30 23:37:00,42.8,35.4,30.32,SE,127,0.0,0.0,75,0.00,,CLR,0.00,VWS V14.01,2013-05-01 03:37:00,
2013-04-30 23:38:00,47.8,31.0,30.30,SE,127,0.0,0.0,53,0.00,,,0.00,weatherlink.com 1.10,2013-05-01 03:38:00,
2013-04-30 23:39:00,42.8,35.4,30.32,SE,127,0.0,0.0,75,0.00,,CLR,0.00,VWS V14.01,2013-05-01 03:39:00,
2013-04-30 23:40:00,42.8,35.1,30.32,SE,127,0.0,0.0,74,0.00,,CLR,0.00,VWS V14.01,2013-05-01 03:40:00,
2013-04-30 23:41:00,42.7,35.3,30.32,SE,127,0.0,0.0,75,0.00,,CLR,0.00,VWS V14.01,2013-05-01 03:41:00,
2013-04-30 23:42:00,42.7,35.7,30.32,SE,127,0.0,0.0,76,0.00,,CLR,0.00,VWS V14.01,2013-05-01 03:42:00,
2013-04-30 23:43:00,42.8,36.1,30.32,SE,127,0.0,0.0,77,0.00,,CLR,0.00,VWS V14.01,2013-05-01 03:43:00,
2013-04-30 23:44:00,42.8,36.4,30.32,SE,127,0.0,0.0,78,0.00,,CLR,0.00,VWS V14.01,2013-05-01 03:44:00,
2013-04-30 23:45:00,42.8,36.4,30.32,SE,127,0.0,0.0,78,0.00,,CLR,0.00,VWS V14.01,2013-05-01 03:45:00,
2013-04-30 23:46:00,42.8,36.1,30.32,SE,127,0.0,0.0,77,0.00,,CLR,0.00,VWS V14.01,2013-05-01 03:46:00,
2013-04-30 23:47:00,42.8,35.4,30.32,SE,127,0.0,0.0,75,0.00,,CLR,0.00,VWS V14.01,2013-05-01 03:47:00,
2013-04-30 23:48:00,42.8,35.1,30.32,SE,127,0.0,0.0,74,0.00,,CLR,0.00,VWS V14.01,2013-05-01 03:48:00,
2013-04-30 23:49:00,42.9,35.2,30.32,SE,127,0.0,0.0,74,0.00,,CLR,0.00,VWS V14.01,2013-05-01 03:49:00,
2013-04-30 23:50:00,43.0,35.0,30.32,SE,127,0.0,0.0,73,0.00,,CLR,0.00,VWS V14.01,2013-05-01 03:50:00,
2013-04-30 23:51:00,43.0,35.0,30.32,SE,127,0.0,0.0,73,0.00,,CLR,0.00,VWS V14.01,2013-05-01 03:51:00,
2013-04-30 23:52:00,43.1,34.7,30.32,SE,127,0.0,0.0,72,0.00,,CLR,0.00,VWS V14.01,2013-05-01 03:52:00,
2013-04-30 23:53:00,43.2,34.8,30.32,SE,127,0.0,0.0,72,0.00,,CLR,0.00,VWS V14.01,2013-05-01 03:53:00,
2013-04-30 23:54:00,43.3,34.9,30.32,SE,127,0.0,0.0,72,0.00,,CLR,0.00,VWS V14.01,2013-05-01 03:54:00,
2013-04-30 23:55:00,45.9,31.0,30.31,SE,127,0.0,0.0,57,0.00,,,0.00,weatherlink.com 1.10,2013-05-01 03:55:00,
2013-04-30 23:56:00,43.3,34.5,30.32,SE,127,0.0,0.0,71,0.00,,CLR,0.00,VWS V14.01,2013-05-01 03:56:00,
2013-04-30 23:57:00,43.3,34.5,30.32,SE,127,0.0,0.0,71,0.00,,CLR,0.00,VWS V14.01,2013-05-01 03:57:00,
2013-04-30 23:58:00,43.3,34.5,30.32,SE,127,0.0,0.0,71,0.00,,CLR,0.00,VWS V14.01,2013-05-01 03:58:00,
2013-04-30 23:59:00,43.3,34.5,30.32,SE,127,0.0,0.0,71,0.00,,CLR,0.00,VWS V14.01,2013-05-01 03:59:00,